Time,TemperatureF,DewpointF,PressureIn,WindDirection,WindDirectionDegrees,WindSpeedMPH,WindSpeedGustMPH,Humidity,HourlyPrecipIn,Conditions,Clouds,dailyrainin,SoftwareType,DateUTC
2013-07-28 00:01:00,66.4,53.4,30.09,NW,308,0.0,2.0,63,0.00,,,0.00,Wunderground v.1.15,2013-07-28 04:01:00,
2013-07-28 00:04:00,66.5,52.2,30.09,NNE,33,1.0,2.0,60,0.00,,,0.00,Wunderground v.1.15,2013-07-28 04:04:00,
2013-07-28 00:06:00,66.6,51.8,30.09,NNE,33,1.0,2.0,59,0.00,,,0.00,Wunderground v.1.15,2013-07-28 04:06:00,
2013-07-28 00:08:00,66.7,53.3,30.09,NNE,33,1.0,2.0,62,0.00,,,0.00,Wunderground v.1.15,2013-07-28 04:08:00,
2013-07-28 00:09:00,66.8,53.8,30.09,SW,236,1.0,2.0,63,0.00,,,0.00,Wunderground v.1.15,2013-07-28 04:09:00,
2013-07-28 00:10:00,66.9,53.9,30.09,SSW,207,1.0,3.0,63,0.00,,,0.00,Wunderground v.1.15,2013-07-28 04:10:00,
2013-07-28 00:11:00,67.0,55.3,30.09,West,266,1.0,3.0,66,0.00,,,0.00,Wunderground v.1.15,2013-07-28 04:11:00,
2013-07-28 00:13:00,67.2,54.2,30.09,West,266,1.0,3.0,63,0.00,,,0.00,Wunderground v.1.15,2013-07-28 04:13:00,
2013-07-28 00:17:00,67.6,55.0,30.09,NNW,338,1.0,3.0,64,0.00,,,0.00,Wunderground v.1.15,2013-07-28 04:17:00,
2013-07-28 00:18:00,67.6,53.7,30.09,North,5,1.0,3.0,61,0.00,,,0.00,Wunderground v.1.15,2013-07-28 04:18:00,
2013-07-28 00:21:00,67.8,52.5,30.09,WSW,246,1.0,1.0,58,0.00,,,0.00,Wunderground v.1.15,2013-07-28 04:21:00,
2013-07-28 00:22:00,67.8,52.0,30.09,West,274,1.0,1.0,57,0.00,,,0.00,Wunderground v.1.15,2013-07-28 04:22:00,
2013-07-28 00:23:00,67.8,51.5,30.09,WSW,242,1.0,1.0,56,0.00,,,0.00,Wunderground v.1.15,2013-07-28 04:23:00,
2013-07-28 00:24:00,67.8,52.0,30.09,WSW,242,1.0,1.0,57,0.00,,,0.00,Wunderground v.1.15,2013-07-28 04:24:00,
2013-07-28 00:28:00,68.2,51.4,30.09,West,281,1.0,1.0,55,0.00,,,0.00,Wunderground v.1.15,2013-07-28 04:28:00,
2013-07-28 00:30:00,68.4,54.0,30.09,West,281,0.0,1.0,60,0.00,,,0.00,Wunderground v.1.15,2013-07-28 04:30:00,
2013-07-28 00:33:00,68.5,53.1,30.09,North,5,0.0,2.0,58,0.00,,,0.00,Wunderground v.1.15,2013-07-28 04:33:00,
2013-07-28 00:38:00,68.7,53.3,30.09,SW,215,1.0,2.0,58,0.00,,,0.00,Wunderground v.1.15,2013-07-28 04:38:00,
2013-07-28 00:41:00,69.0,54.5,30.09,SW,215,1.0,1.0,60,0.00,,,0.00,Wunderground v.1.15,2013-07-28 04:41:00,
2013-07-28 00:42:00,69.0,54.5,30.09,SW,215,1.0,1.0,60,0.00,,,0.00,Wunderground v.1.15,2013-07-28 04:42:00,
2013-07-28 00:43:00,69.1,54.6,30.09,SW,215,1.0,1.0,60,0.00,,,0.00,Wunderground v.1.15,2013-07-28 04:43:00,
2013-07-28 00:44:00,69.1,54.6,30.09,SW,216,1.0,1.0,60,0.00,,,0.00,Wunderground v.1.15,2013-07-28 04:44:00,
2013-07-28 00:45:00,69.2,53.8,30.09,SSW,208,1.0,1.0,58,0.00,,,0.00,Wunderground v.1.15,2013-07-28 04:45:00,
2013-07-28 00:49:00,69.6,55.6,30.09,SSW,208,1.0,1.0,61,0.00,,,0.00,Wunderground v.1.15,2013-07-28 04:49:00,
2013-07-28 00:53:00,69.9,54.0,30.09,SW,217,0.0,3.0,57,0.00,,,0.00,Wunderground v.1.15,2013-07-28 04:53:00,
2013-07-28 00:55:00,70.1,54.2,30.09,West,281,0.0,3.0,57,0.00,,,0.00,Wunderground v.1.15,2013-07-28 04:55:00,
2013-07-28 00:56:00,70.2,55.2,30.09,East,80,0.0,3.0,59,0.00,,,0.00,Wunderground v.1.15,2013-07-28 04:56:00,
2013-07-28 00:57:00,70.2,53.8,30.09,East,80,0.0,3.0,56,0.00,,,0.00,Wunderground v.1.15,2013-07-28 04:57:00,
2013-07-28 00:58:00,70.2,54.2,30.09,WSW,250,1.0,3.0,57,0.00,,,0.00,Wunderground v.1.15,2013-07-28 04:58:00,
2013-07-28 01:01:00,70.3,52.9,30.09,SW,220,1.0,1.0,54,0.00,,,0.00,Wunderground v.1.15,2013-07-28 05:01:00,
2013-07-28 01:02:00,70.4,51.9,30.09,SW,220,1.0,1.0,52,0.00,,,0.00,Wunderground v.1.15,2013-07-28 05:02:00,
2013-07-28 01:03:00,70.6,52.6,30.08,SW,220,1.0,1.0,53,0.00,,,0.00,Wunderground v.1.15,2013-07-28 05:03:00,
2013-07-28 01:06:00,70.7,57.0,30.09,SW,217,1.0,1.0,62,0.00,,,0.00,Wunderground v.1.15,2013-07-28 05:06:00,
2013-07-28 01:07:00,70.8,54.3,30.09,SW,217,1.0,1.0,56,0.00,,,0.00,Wunderground v.1.15,2013-07-28 05:07:00,
2013-07-28 01:08:00,70.9,53.4,30.08,West,275,1.0,1.0,54,0.00,,,0.00,Wunderground v.1.15,2013-07-28 05:08:00,
2013-07-28 01:09:00,71.0,53.5,30.08,West,275,0.0,1.0,54,0.00,,,0.00,Wunderground v.1.15,2013-07-28 05:09:00,
2013-07-28 01:11:00,71.2,54.7,30.08,West,275,0.0,0.0,56,0.00,,,0.00,Wunderground v.1.15,2013-07-28 05:11:00,
2013-07-28 01:12:00,71.3,56.2,30.08,WSW,240,0.0,0.0,59,0.00,,,0.00,Wunderground v.1.15,2013-07-28 05:12:00,
2013-07-28 01:13:00,71.3,57.2,30.08,SW,217,0.0,1.0,61,0.00,,,0.00,Wunderground v.1.15,2013-07-28 05:13:00,
2013-07-28 01:14:00,71.3,55.3,30.08,West,264,0.0,2.0,57,0.00,,,0.00,Wunderground v.1.15,2013-07-28 05:14:00,
2013-07-28 01:16:00,71.2,53.7,30.08,SW,217,1.0,2.0,54,0.00,,,0.00,Wunderground v.1.15,2013-07-28 05:16:00,
2013-07-28 01:17:00,71.3,53.3,30.08,SW,217,1.0,2.0,53,0.00,,,0.00,Wunderground v.1.15,2013-07-28 05:17:00,
2013-07-28 01:18:00,71.3,54.3,30.08,SW,217,1.0,2.0,55,0.00,,,0.00,Wunderground v.1.15,2013-07-28 05:18:00,
2013-07-28 01:20:00,71.4,54.4,30.08,SSW,202,1.0,4.0,55,0.00,,,0.00,Wunderground v.1.15,2013-07-28 05:20:00,
2013-07-28 01:21:00,71.2,54.2,30.08,SSE,147,1.0,4.0,55,0.00,,,0.00,Wunderground v.1.15,2013-07-28 05:21:00,
2013-07-28 01:22:00,71.1,53.6,30.08,NW,323,1.0,4.0,54,0.00,,,0.00,Wunderground v.1.15,2013-07-28 05:22:00,
2013-07-28 01:23:00,70.9,53.9,30.08,NW,323,1.0,4.0,55,0.00,,,0.00,Wunderground v.1.15,2013-07-28 05:23:00,
2013-07-28 01:24:00,70.8,53.3,30.08,NW,323,1.0,4.0,54,0.00,,,0.00,Wunderground v.1.15,2013-07-28 05:24:00,
2013-07-28 01:25:00,70.7,53.2,30.08,NW,323,1.0,4.0,54,0.00,,,0.00,Wunderground v.1.15,2013-07-28 05:25:00,
2013-07-28 01:26:00,70.6,54.1,30.08,West,277,1.0,4.0,56,0.00,,,0.00,Wunderground v.1.15,2013-07-28 05:26:00,
2013-07-28 01:27:00,70.7,55.2,30.08,West,277,1.0,4.0,58,0.00,,,0.00,Wunderground v.1.15,2013-07-28 05:27:00,
2013-07-28 01:29:00,70.9,54.4,30.08,South,179,1.0,4.0,56,0.00,,,0.00,Wunderground v.1.15,2013-07-28 05:29:00,
2013-07-28 01:30:00,71.0,53.5,30.08,South,186,1.0,3.0,54,0.00,,,0.00,Wunderground v.1.15,2013-07-28 05:30:00,
2013-07-28 01:31:00,71.1,53.6,30.08,South,178,1.0,3.0,54,0.00,,,0.00,Wunderground v.1.15,2013-07-28 05:31:00,
2013-07-28 01:32:00,71.3,52.8,30.08,SSE,167,1.0,3.0,52,0.00,,,0.00,Wunderground v.1.15,2013-07-28 05:32:00,
2013-07-28 01:33:00,71.3,54.3,30.08,SW,215,1.0,3.0,55,0.00,,,0.00,Wunderground v.1.15,2013-07-28 05:33:00,
2013-07-28 01:34:00,71.3,52.8,30.08,SSW,192,1.0,3.0,52,0.00,,,0.00,Wunderground v.1.15,2013-07-28 05:34:00,
2013-07-28 01:35:00,71.3,54.3,30.08,SSW,192,1.0,3.0,55,0.00,,,0.00,Wunderground v.1.15,2013-07-28 05:35:00,
2013-07-28 01:36:00,71.3,54.8,30.08,SSW,193,1.0,3.0,56,0.00,,,0.00,Wunderground v.1.15,2013-07-28 05:36:00,
2013-07-28 01:38:00,71.3,55.8,30.08,WNW,289,1.0,3.0,58,0.00,,,0.00,Wunderground v.1.15,2013-07-28 05:38:00,
2013-07-28 01:39:00,71.2,57.1,30.08,WNW,299,1.0,3.0,61,0.00,,,0.00,Wunderground v.1.15,2013-07-28 05:39:00,
2013-07-28 01:40:00,71.3,55.3,30.08,NNW,336,1.0,1.0,57,0.00,,,0.00,Wunderground v.1.15,2013-07-28 05:40:00,
2013-07-28 01:41:00,71.3,53.3,30.08,NNE,16,0.0,3.0,53,0.00,,,0.00,Wunderground v.1.15,2013-07-28 05:41:00,
2013-07-28 01:42:00,71.3,53.8,30.08,NNE,24,1.0,3.0,54,0.00,,,0.00,Wunderground v.1.15,2013-07-28 05:42:00,
2013-07-28 01:43:00,71.3,52.2,30.08,NNE,24,1.0,3.0,51,0.00,,,0.00,Wunderground v.1.15,2013-07-28 05:43:00,
2013-07-28 01:44:00,61.1,55.2,30.00,WSW,242,0.0,0.0,81,0.00,,,0.00,Wunderground v.1.15,2013-07-28 05:44:00,
2013-07-28 01:47:00,71.3,52.2,30.08,North,360,1.0,3.0,51,0.00,,,0.00,Wunderground v.1.15,2013-07-28 05:47:00,
2013-07-28 01:50:00,60.9,54.7,30.00,WSW,242,0.0,1.0,80,0.00,,,0.00,Wunderground v.1.15,2013-07-28 05:50:00,
2013-07-28 01:51:00,72.0,54.4,30.08,West,278,1.0,1.0,54,0.00,,,0.00,Wunderground v.1.15,2013-07-28 05:51:00,
2013-07-28 01:53:00,72.1,54.5,30.08,NNE,32,1.0,1.0,54,0.00,,,0.00,Wunderground v.1.15,2013-07-28 05:53:00,
2013-07-28 01:58:00,72.7,56.1,30.08,SE,136,0.0,1.0,56,0.00,,,0.00,Wunderground v.1.15,2013-07-28 05:58:00,
2013-07-28 01:59:00,60.6,54.4,30.00,ENE,65,0.0,0.0,80,0.00,,,0.00,Wunderground v.1.15,2013-07-28 05:59:00,
2013-07-28 02:00:00,60.5,54.0,30.00,ENE,65,0.0,0.0,79,0.00,,,0.00,Wunderground v.1.15,2013-07-28 06:00:00,
2013-07-28 02:02:00,73.3,51.8,30.08,East,100,0.0,1.0,47,0.00,,,0.00,Wunderground v.1.15,2013-07-28 06:02:00,
2013-07-28 02:04:00,73.2,53.4,30.08,East,100,1.0,1.0,50,0.00,,,0.00,Wunderground v.1.15,2013-07-28 06:04:00,
2013-07-28 02:05:00,73.0,52.7,30.08,East,100,1.0,1.0,49,0.00,,,0.00,Wunderground v.1.15,2013-07-28 06:05:00,
2013-07-28 02:06:00,60.4,53.9,30.00,NE,36,0.0,0.0,79,0.00,,,0.00,Wunderground v.1.15,2013-07-28 06:06:00,
2013-07-28 02:08:00,60.4,53.5,30.00,NE,35,0.0,0.0,78,0.00,,,0.00,Wunderground v.1.15,2013-07-28 06:08:00,
2013-07-28 02:09:00,72.5,53.3,30.08,North,355,1.0,3.0,51,0.00,,,0.00,Wunderground v.1.15,2013-07-28 06:09:00,
2013-07-28 02:10:00,60.4,53.2,30.00,NE,35,0.0,0.0,77,0.00,,,0.00,Wunderground v.1.15,2013-07-28 06:10:00,
2013-07-28 02:14:00,72.4,54.3,30.07,WNW,302,1.0,2.0,53,0.00,,,0.00,Wunderground v.1.15,2013-07-28 06:14:00,
2013-07-28 02:15:00,72.3,53.2,30.08,West,262,1.0,2.0,51,0.00,,,0.00,Wunderground v.1.15,2013-07-28 06:15:00,
2013-07-28 02:17:00,72.2,54.6,30.07,NE,53,1.0,2.0,54,0.00,,,0.00,Wunderground v.1.15,2013-07-28 06:17:00,
2013-07-28 02:18:00,60.2,54.3,30.01,NNW,328,0.0,0.0,81,0.00,,,0.00,Wunderground v.1.15,2013-07-28 06:18:00,
2013-07-28 02:19:00,60.2,54.3,30.01,NNW,328,0.0,0.0,81,0.00,,,0.00,Wunderground v.1.15,2013-07-28 06:19:00,
2013-07-28 02:21:00,72.3,53.7,30.07,North,9,1.0,1.0,52,0.00,,,0.00,Wunderground v.1.15,2013-07-28 06:21:00,
2013-07-28 02:22:00,72.4,52.7,30.07,North,9,1.0,1.0,50,0.00,,,0.00,Wunderground v.1.15,2013-07-28 06:22:00,
2013-07-28 02:25:00,59.8,54.0,30.01,SW,215,0.0,0.0,81,0.00,,,0.00,Wunderground v.1.15,2013-07-28 06:25:00,
2013-07-28 02:26:00,59.7,53.5,30.01,SW,215,0.0,0.0,80,0.00,,,0.00,Wunderground v.1.15,2013-07-28 06:26:00,
2013-07-28 02:27:00,59.7,53.5,30.01,SW,215,0.0,0.0,80,0.00,,,0.00,Wunderground v.1.15,2013-07-28 06:27:00,
2013-07-28 02:29:00,73.0,54.3,30.07,SW,219,0.0,1.0,52,0.00,,,0.00,Wunderground v.1.15,2013-07-28 06:29:00,
2013-07-28 02:32:00,59.5,53.3,30.01,SW,228,0.0,2.0,80,0.00,,,0.00,Wunderground v.1.15,2013-07-28 06:32:00,
2013-07-28 02:33:00,59.5,53.3,30.01,SW,228,0.0,2.0,80,0.00,,,0.00,Wunderground v.1.15,2013-07-28 06:33:00,
2013-07-28 02:34:00,73.4,55.7,30.07,WSW,251,0.0,1.0,54,0.00,,,0.00,Wunderground v.1.15,2013-07-28 06:34:00,
2013-07-28 02:35:00,73.4,56.2,30.07,West,262,0.0,1.0,55,0.00,,,0.00,Wunderground v.1.15,2013-07-28 06:35:00,
2013-07-28 02:39:00,73.5,53.2,30.07,SSW,213,0.0,1.0,49,0.00,,,0.00,Wunderground v.1.15,2013-07-28 06:39:00,
2013-07-28 02:40:00,59.3,53.5,30.01,SW,228,0.0,0.0,81,0.00,,,0.00,Wunderground v.1.15,2013-07-28 06:40:00,
2013-07-28 02:41:00,59.3,53.8,30.01,SW,228,0.0,0.0,82,0.00,,,0.00,Wunderground v.1.15,2013-07-28 06:41:00,
2013-07-28 02:43:00,73.7,53.3,30.07,West,273,0.0,2.0,49,0.00,,,0.00,Wunderground v.1.15,2013-07-28 06:43:00,
2013-07-28 02:44:00,73.5,52.6,30.07,NW,313,0.0,2.0,48,0.00,,,0.00,Wunderground v.1.15,2013-07-28 06:44:00,
2013-07-28 02:45:00,59.1,52.9,30.01,SW,228,0.0,0.0,80,0.00,,,0.00,Wunderground v.1.15,2013-07-28 06:45:00,
2013-07-28 02:46:00,59.1,52.6,30.01,SW,232,0.0,1.0,79,0.00,,,0.00,Wunderground v.1.15,2013-07-28 06:46:00,
2013-07-28 02:47:00,73.3,56.2,30.07,SSW,199,0.0,2.0,55,0.00,,,0.00,Wunderground v.1.15,2013-07-28 06:47:00,
2013-07-28 02:49:00,59.1,53.3,30.01,SW,232,0.0,0.0,81,0.00,,,0.00,Wunderground v.1.15,2013-07-28 06:49:00,
2013-07-28 02:51:00,73.6,55.4,30.07,East,98,1.0,1.0,53,0.00,,,0.00,Wunderground v.1.15,2013-07-28 06:51:00,
2013-07-28 02:52:00,59.0,52.5,30.01,SW,232,0.0,0.0,79,0.00,,,0.00,Wunderground v.1.15,2013-07-28 06:52:00,
2013-07-28 02:53:00,59.0,52.8,30.01,SW,232,0.0,0.0,80,0.00,,,0.00,Wunderground v.1.15,2013-07-28 06:53:00,
2013-07-28 02:57:00,74.6,56.3,30.07,SSW,199,0.0,1.0,53,0.00,,,0.00,Wunderground v.1.15,2013-07-28 06:57:00,
2013-07-28 02:58:00,74.6,54.7,30.07,SSW,198,0.0,1.0,50,0.00,,,0.00,Wunderground v.1.15,2013-07-28 06:58:00,
2013-07-28 02:59:00,58.9,53.1,30.01,SW,232,0.0,0.0,81,0.00,,,0.00,Wunderground v.1.15,2013-07-28 06:59:00,
2013-07-28 03:00:00,58.9,53.1,30.01,SW,232,0.0,0.0,81,0.00,,,0.00,Wunderground v.1.15,2013-07-28 07:00:00,
2013-07-28 03:01:00,74.9,54.4,30.07,SSW,198,0.0,0.0,49,0.00,,,0.00,Wunderground v.1.15,2013-07-28 07:01:00,
2013-07-28 03:02:00,75.0,56.2,30.07,SSW,209,0.0,0.0,52,0.00,,,0.00,Wunderground v.1.15,2013-07-28 07:02:00,
2013-07-28 03:03:00,75.0,56.2,30.07,West,273,0.0,1.0,52,0.00,,,0.00,Wunderground v.1.15,2013-07-28 07:03:00,
2013-07-28 03:04:00,75.0,55.6,30.07,SW,215,0.0,1.0,51,0.00,,,0.00,Wunderground v.1.15,2013-07-28 07:04:00,
2013-07-28 03:05:00,58.7,52.5,30.01,SW,232,0.0,0.0,80,0.00,,,0.00,Wunderground v.1.15,2013-07-28 07:05:00,
2013-07-28 03:06:00,75.0,55.6,30.07,West,269,0.0,1.0,51,0.00,,,0.00,Wunderground v.1.15,2013-07-28 07:06:00,
2013-07-28 03:07:00,74.8,54.9,30.07,West,269,0.0,1.0,50,0.00,,,0.00,Wunderground v.1.15,2013-07-28 07:07:00,
2013-07-28 03:08:00,58.7,52.9,30.01,SW,232,0.0,0.0,81,0.00,,,0.00,Wunderground v.1.15,2013-07-28 07:08:00,
2013-07-28 03:09:00,58.7,53.2,30.01,SW,232,0.0,0.0,82,0.00,,,0.00,Wunderground v.1.15,2013-07-28 07:09:00,
2013-07-28 03:10:00,58.6,52.8,30.01,SW,232,0.0,0.0,81,0.00,,,0.00,Wunderground v.1.15,2013-07-28 07:10:00,
2013-07-28 03:11:00,74.3,55.0,30.07,SSW,209,1.0,2.0,51,0.00,,,0.00,Wunderground v.1.15,2013-07-28 07:11:00,
2013-07-28 03:12:00,74.3,54.5,30.07,NNE,24,1.0,2.0,50,0.00,,,0.00,Wunderground v.1.15,2013-07-28 07:12:00,
2013-07-28 03:14:00,74.2,53.2,30.07,NNE,24,1.0,2.0,48,0.00,,,0.00,Wunderground v.1.15,2013-07-28 07:14:00,
2013-07-28 03:15:00,74.1,53.7,30.07,NNE,24,1.0,2.0,49,0.00,,,0.00,Wunderground v.1.15,2013-07-28 07:15:00,
2013-07-28 03:16:00,58.5,52.4,30.01,SW,232,0.0,1.0,80,0.00,,,0.00,Wunderground v.1.15,2013-07-28 07:16:00,
2013-07-28 03:17:00,58.5,53.4,30.01,SW,232,0.0,1.0,83,0.00,,,0.00,Wunderground v.1.15,2013-07-28 07:17:00,
2013-07-28 03:19:00,73.7,53.3,30.07,North,360,1.0,2.0,49,0.00,,,0.00,Wunderground v.1.15,2013-07-28 07:19:00,
2013-07-28 03:20:00,73.6,54.4,30.07,North,360,1.0,1.0,51,0.00,,,0.00,Wunderground v.1.15,2013-07-28 07:20:00,
2013-07-28 03:22:00,58.4,53.6,30.01,SW,232,0.0,0.0,84,0.00,,,0.00,Wunderground v.1.15,2013-07-28 07:22:00,
2013-07-28 03:23:00,73.6,54.9,30.07,West,269,1.0,1.0,52,0.00,,,0.00,Wunderground v.1.15,2013-07-28 07:23:00,
2013-07-28 03:24:00,58.4,53.3,30.01,SW,232,0.0,0.0,83,0.00,,,0.00,Wunderground v.1.15,2013-07-28 07:24:00,
2013-07-28 03:25:00,73.7,55.5,30.07,West,270,1.0,1.0,53,0.00,,,0.00,Wunderground v.1.15,2013-07-28 07:25:00,
2013-07-28 03:26:00,73.9,55.7,30.07,West,270,0.0,1.0,53,0.00,,,0.00,Wunderground v.1.15,2013-07-28 07:26:00,
2013-07-28 03:27:00,74.0,54.7,30.07,West,270,0.0,1.0,51,0.00,,,0.00,Wunderground v.1.15,2013-07-28 07:27:00,
2013-07-28 03:28:00,58.2,53.4,30.01,SW,232,0.0,0.0,84,0.00,,,0.00,Wunderground v.1.15,2013-07-28 07:28:00,
2013-07-28 03:29:00,58.2,53.4,30.01,SW,232,0.0,0.0,84,0.00,,,0.00,Wunderground v.1.15,2013-07-28 07:29:00,
2013-07-28 03:30:00,74.5,54.1,30.06,NNE,28,0.0,1.0,49,0.00,,,0.00,Wunderground v.1.15,2013-07-28 07:30:00,
2013-07-28 03:31:00,74.6,54.2,30.07,NNE,28,0.0,1.0,49,0.00,,,0.00,Wunderground v.1.15,2013-07-28 07:31:00,
2013-07-28 03:32:00,74.6,54.7,30.07,NNE,28,0.0,1.0,50,0.00,,,0.00,Wunderground v.1.15,2013-07-28 07:32:00,
2013-07-28 03:33:00,74.6,55.8,30.06,NNE,28,0.0,1.0,52,0.00,,,0.00,Wunderground v.1.15,2013-07-28 07:33:00,
2013-07-28 03:34:00,58.0,53.5,30.01,SW,232,0.0,0.0,85,0.00,,,0.00,Wunderground v.1.15,2013-07-28 07:34:00,
2013-07-28 03:36:00,74.6,56.9,30.06,NNE,33,1.0,1.0,54,0.00,,,0.00,Wunderground v.1.15,2013-07-28 07:36:00,
2013-07-28 03:38:00,57.8,53.0,30.01,SW,232,0.0,0.0,84,0.00,,,0.00,Wunderground v.1.15,2013-07-28 07:38:00,
2013-07-28 03:39:00,57.8,53.3,30.01,SW,232,0.0,0.0,85,0.00,,,0.00,Wunderground v.1.15,2013-07-28 07:39:00,
2013-07-28 03:42:00,75.0,55.6,30.06,ENE,71,0.0,3.0,51,0.00,,,0.00,Wunderground v.1.15,2013-07-28 07:42:00,
2013-07-28 03:44:00,57.6,53.4,30.01,SW,232,0.0,0.0,86,0.00,,,0.00,Wunderground v.1.15,2013-07-28 07:44:00,
2013-07-28 03:46:00,57.5,53.0,30.01,SW,232,0.0,0.0,85,0.00,,,0.00,Wunderground v.1.15,2013-07-28 07:46:00,
2013-07-28 03:48:00,74.6,55.8,30.06,WNW,296,1.0,3.0,52,0.00,,,0.00,Wunderground v.1.15,2013-07-28 07:48:00,
2013-07-28 03:49:00,74.6,55.8,30.06,WNW,296,1.0,3.0,52,0.00,,,0.00,Wunderground v.1.15,2013-07-28 07:49:00,
2013-07-28 03:50:00,74.5,55.7,30.06,WNW,294,1.0,1.0,52,0.00,,,0.00,Wunderground v.1.15,2013-07-28 07:50:00,
2013-07-28 03:52:00,57.2,53.4,30.01,SW,232,0.0,0.0,87,0.00,,,0.00,Wunderground v.1.15,2013-07-28 07:52:00,
2013-07-28 03:53:00,57.2,53.0,30.01,SW,232,0.0,0.0,86,0.00,,,0.00,Wunderground v.1.15,2013-07-28 07:53:00,
2013-07-28 03:54:00,74.1,53.7,30.06,WNW,295,0.0,1.0,49,0.00,,,0.00,Wunderground v.1.15,2013-07-28 07:54:00,
2013-07-28 03:55:00,74.1,54.8,30.06,SSW,202,0.0,1.0,51,0.00,,,0.00,Wunderground v.1.15,2013-07-28 07:55:00,
2013-07-28 03:56:00,74.1,54.8,30.06,WNW,299,0.0,1.0,51,0.00,,,0.00,Wunderground v.1.15,2013-07-28 07:56:00,
2013-07-28 03:57:00,56.9,52.8,30.01,SW,232,0.0,0.0,86,0.00,,,0.00,Wunderground v.1.15,2013-07-28 07:57:00,
2013-07-28 03:58:00,56.9,52.8,30.01,SW,232,0.0,0.0,86,0.00,,,0.00,Wunderground v.1.15,2013-07-28 07:58:00,
2013-07-28 03:59:00,74.1,56.4,30.06,SW,216,0.0,1.0,54,0.00,,,0.00,Wunderground v.1.15,2013-07-28 07:59:00,
2013-07-28 04:00:00,74.1,54.8,30.06,North,360,0.0,2.0,51,0.00,,,0.00,Wunderground v.1.15,2013-07-28 08:00:00,
2013-07-28 04:03:00,56.7,52.6,30.01,SW,232,0.0,0.0,86,0.00,,,0.00,Wunderground v.1.15,2013-07-28 08:03:00,
2013-07-28 04:04:00,74.6,55.8,30.06,South,169,1.0,2.0,52,0.00,,,0.00,Wunderground v.1.15,2013-07-28 08:04:00,
2013-07-28 04:05:00,56.6,52.5,30.01,SW,232,0.0,0.0,86,0.00,,,0.00,Wunderground v.1.15,2013-07-28 08:05:00,
2013-07-28 04:06:00,74.7,54.8,30.06,SSW,212,1.0,2.0,50,0.00,,,0.00,Wunderground v.1.15,2013-07-28 08:06:00,
2013-07-28 04:07:00,56.6,52.5,30.01,SW,232,0.0,0.0,86,0.00,,,0.00,Wunderground v.1.15,2013-07-28 08:07:00,
2013-07-28 04:13:00,56.5,52.7,30.00,SW,232,0.0,0.0,87,0.00,,,0.00,Wunderground v.1.15,2013-07-28 08:13:00,
2013-07-28 04:14:00,56.4,52.6,30.01,SW,232,0.0,0.0,87,0.00,,,0.00,Wunderground v.1.15,2013-07-28 08:14:00,
2013-07-28 04:15:00,74.9,53.3,30.06,NNE,24,1.0,2.0,47,0.00,,,0.00,Wunderground v.1.15,2013-07-28 08:15:00,
2013-07-28 04:16:00,74.8,54.9,30.06,NNE,24,1.0,2.0,50,0.00,,,0.00,Wunderground v.1.15,2013-07-28 08:16:00,
2013-07-28 04:17:00,74.8,55.5,30.06,NE,40,1.0,2.0,51,0.00,,,0.00,Wunderground v.1.15,2013-07-28 08:17:00,
2013-07-28 04:18:00,74.7,54.3,30.06,NE,52,1.0,2.0,49,0.00,,,0.00,Wunderground v.1.15,2013-07-28 08:18:00,
2013-07-28 04:19:00,56.2,52.7,30.01,SW,232,0.0,0.0,88,0.00,,,0.00,Wunderground v.1.15,2013-07-28 08:19:00,
2013-07-28 04:21:00,74.3,53.9,30.06,NNW,331,1.0,2.0,49,0.00,,,0.00,Wunderground v.1.15,2013-07-28 08:21:00,
2013-07-28 04:22:00,56.0,52.2,30.01,SW,232,0.0,0.0,87,0.00,,,0.00,Wunderground v.1.15,2013-07-28 08:22:00,
2013-07-28 04:23:00,74.2,53.8,30.06,ENE,63,1.0,3.0,49,0.00,,,0.00,Wunderground v.1.15,2013-07-28 08:23:00,
2013-07-28 04:24:00,55.9,52.1,30.01,SW,232,0.0,0.0,87,0.00,,,0.00,Wunderground v.1.15,2013-07-28 08:24:00,
2013-07-28 04:26:00,74.4,56.2,30.06,South,176,1.0,3.0,53,0.00,,,0.00,Wunderground v.1.15,2013-07-28 08:26:00,
2013-07-28 04:29:00,74.5,53.5,30.06,North,355,1.0,3.0,48,0.00,,,0.00,Wunderground v.1.15,2013-07-28 08:29:00,
2013-07-28 04:30:00,55.6,52.1,30.01,SW,232,0.0,0.0,88,0.00,,,0.00,Wunderground v.1.15,2013-07-28 08:30:00,
2013-07-28 04:31:00,74.5,55.2,30.05,WSW,237,1.0,2.0,51,0.00,,,0.00,Wunderground v.1.15,2013-07-28 08:31:00,
2013-07-28 04:32:00,74.5,56.2,30.05,WSW,237,1.0,2.0,53,0.00,,,0.00,Wunderground v.1.15,2013-07-28 08:32:00,
2013-07-28 04:33:00,74.5,53.5,30.05,WSW,238,1.0,2.0,48,0.00,,,0.00,Wunderground v.1.15,2013-07-28 08:33:00,
2013-07-28 04:34:00,74.6,55.8,30.05,WSW,238,1.0,2.0,52,0.00,,,0.00,Wunderground v.1.15,2013-07-28 08:34:00,
2013-07-28 04:35:00,55.4,51.9,30.00,SW,232,0.0,0.0,88,0.00,,,0.00,Wunderground v.1.15,2013-07-28 08:35:00,
2013-07-28 04:36:00,74.7,55.4,30.05,WSW,237,0.0,5.0,51,0.00,,,0.00,Wunderground v.1.15,2013-07-28 08:36:00,
2013-07-28 04:38:00,55.3,51.8,30.00,SW,232,0.0,0.0,88,0.00,,,0.00,Wunderground v.1.15,2013-07-28 08:38:00,
2013-07-28 04:39:00,74.6,53.6,30.05,West,259,0.0,5.0,48,0.00,,,0.00,Wunderground v.1.15,2013-07-28 08:39:00,
2013-07-28 04:40:00,74.6,55.3,30.05,West,259,1.0,1.0,51,0.00,,,0.00,Wunderground v.1.15,2013-07-28 08:40:00,
2013-07-28 04:41:00,55.2,51.7,30.00,SW,232,0.0,0.0,88,0.00,,,0.00,Wunderground v.1.15,2013-07-28 08:41:00,
2013-07-28 04:42:00,74.8,55.5,30.05,South,180,1.0,1.0,51,0.00,,,0.00,Wunderground v.1.15,2013-07-28 08:42:00,
2013-07-28 04:44:00,75.0,57.2,30.05,SSW,205,1.0,1.0,54,0.00,,,0.00,Wunderground v.1.15,2013-07-28 08:44:00,
2013-07-28 04:45:00,55.0,51.5,30.00,SW,232,0.0,0.0,88,0.00,,,0.00,Wunderground v.1.15,2013-07-28 08:45:00,
2013-07-28 04:46:00,75.1,56.3,30.05,SSW,205,1.0,1.0,52,0.00,,,0.00,Wunderground v.1.15,2013-07-28 08:46:00,
2013-07-28 04:47:00,75.2,55.8,30.05,SSW,198,0.0,1.0,51,0.00,,,0.00,Wunderground v.1.15,2013-07-28 08:47:00,
2013-07-28 04:48:00,75.3,55.9,30.05,SW,215,0.0,1.0,51,0.00,,,0.00,Wunderground v.1.15,2013-07-28 08:48:00,
2013-07-28 04:49:00,75.4,56.5,30.05,SW,215,0.0,1.0,52,0.00,,,0.00,Wunderground v.1.15,2013-07-28 08:49:00,
2013-07-28 04:50:00,54.9,51.7,30.01,SW,232,0.0,0.0,89,0.00,,,0.00,Wunderground v.1.15,2013-07-28 08:50:00,
2013-07-28 04:51:00,75.3,55.9,30.05,SSW,209,0.0,0.0,51,0.00,,,0.00,Wunderground v.1.15,2013-07-28 08:51:00,
2013-07-28 04:52:00,54.9,51.7,30.01,SW,232,0.0,0.0,89,0.00,,,0.00,Wunderground v.1.15,2013-07-28 08:52:00,
2013-07-28 04:53:00,75.3,55.9,30.05,SSW,209,0.0,0.0,51,0.00,,,0.00,Wunderground v.1.15,2013-07-28 08:53:00,
2013-07-28 04:54:00,75.3,56.5,30.05,SSW,209,0.0,0.0,52,0.00,,,0.00,Wunderground v.1.15,2013-07-28 08:54:00,
2013-07-28 04:55:00,75.3,56.5,30.05,SSW,193,0.0,1.0,52,0.00,,,0.00,Wunderground v.1.15,2013-07-28 08:55:00,
2013-07-28 04:57:00,75.4,55.5,30.05,SW,224,0.0,1.0,50,0.00,,,0.00,Wunderground v.1.15,2013-07-28 08:57:00,
2013-07-28 04:59:00,75.5,58.2,30.05,South,189,0.0,2.0,55,0.00,,,0.00,Wunderground v.1.15,2013-07-28 08:59:00,
2013-07-28 05:00:00,54.8,51.6,30.01,SW,232,0.0,0.0,89,0.00,,,0.00,Wunderground v.1.15,2013-07-28 09:00:00,
2013-07-28 05:01:00,75.3,58.0,30.05,SW,233,1.0,6.0,55,0.00,,,0.00,Wunderground v.1.15,2013-07-28 09:01:00,
2013-07-28 05:02:00,54.8,51.6,30.01,SW,232,0.0,0.0,89,0.00,,,0.00,Wunderground v.1.15,2013-07-28 09:02:00,
2013-07-28 05:05:00,54.8,51.6,30.01,SW,232,0.0,0.0,89,0.00,,,0.00,Wunderground v.1.15,2013-07-28 09:05:00,
2013-07-28 05:07:00,54.8,51.9,30.01,SW,232,0.0,0.0,90,0.00,,,0.00,Wunderground v.1.15,2013-07-28 09:07:00,
2013-07-28 05:08:00,54.8,51.9,30.01,SW,232,0.0,0.0,90,0.00,,,0.00,Wunderground v.1.15,2013-07-28 09:08:00,
2013-07-28 05:10:00,74.3,58.1,30.05,South,169,1.0,1.0,57,0.00,,,0.00,Wunderground v.1.15,2013-07-28 09:10:00,
2013-07-28 05:13:00,54.8,51.9,30.01,SW,232,0.0,0.0,90,0.00,,,0.00,Wunderground v.1.15,2013-07-28 09:13:00,
2013-07-28 05:14:00,54.7,51.8,30.01,SW,232,0.0,0.0,90,0.00,,,0.00,Wunderground v.1.15,2013-07-28 09:14:00,
2013-07-28 05:16:00,74.7,58.0,30.05,NW,319,1.0,3.0,56,0.00,,,0.00,Wunderground v.1.15,2013-07-28 09:16:00,
2013-07-28 05:17:00,54.6,51.7,30.01,SW,232,0.0,0.0,90,0.00,,,0.00,Wunderground v.1.15,2013-07-28 09:17:00,
2013-07-28 05:18:00,74.7,56.9,30.05,NW,319,1.0,3.0,54,0.00,,,0.00,Wunderground v.1.15,2013-07-28 09:18:00,
2013-07-28 05:22:00,54.5,51.6,30.01,SW,232,0.0,0.0,90,0.00,,,0.00,Wunderground v.1.15,2013-07-28 09:22:00,
2013-07-28 05:23:00,54.5,51.6,30.01,SW,232,0.0,0.0,90,0.00,,,0.00,Wunderground v.1.15,2013-07-28 09:23:00,
2013-07-28 05:24:00,54.5,51.6,30.01,SW,232,0.0,0.0,90,0.00,,,0.00,Wunderground v.1.15,2013-07-28 09:24:00,
2013-07-28 05:26:00,75.4,58.1,30.05,SSE,159,0.0,2.0,55,0.00,,,0.00,Wunderground v.1.15,2013-07-28 09:26:00,
2013-07-28 05:27:00,54.4,51.5,30.02,SW,232,0.0,0.0,90,0.00,,,0.00,Wunderground v.1.15,2013-07-28 09:27:00,
2013-07-28 05:29:00,54.4,51.5,30.01,SW,232,0.0,0.0,90,0.00,,,0.00,Wunderground v.1.15,2013-07-28 09:29:00,
2013-07-28 05:30:00,75.7,57.4,30.05,West,265,1.0,1.0,53,0.00,,,0.00,Wunderground v.1.15,2013-07-28 09:30:00,
2013-07-28 05:31:00,75.8,60.0,30.05,West,265,1.0,1.0,58,0.00,,,0.00,Wunderground v.1.15,2013-07-28 09:31:00,
2013-07-28 05:32:00,54.4,51.5,30.02,SW,232,0.0,0.0,90,0.00,,,0.00,Wunderground v.1.15,2013-07-28 09:32:00,
2013-07-28 05:33:00,76.1,58.8,30.05,WNW,300,1.0,3.0,55,0.00,,,0.00,Wunderground v.1.15,2013-07-28 09:33:00,
2013-07-28 05:34:00,76.1,58.8,30.05,WNW,298,1.0,3.0,55,0.00,,,0.00,Wunderground v.1.15,2013-07-28 09:34:00,
2013-07-28 05:35:00,54.4,51.5,30.02,SW,232,0.0,0.0,90,0.00,,,0.00,Wunderground v.1.15,2013-07-28 09:35:00,
2013-07-28 05:36:00,54.4,51.5,30.02,SW,232,0.0,0.0,90,0.00,,,0.00,Wunderground v.1.15,2013-07-28 09:36:00,
2013-07-28 05:37:00,76.1,57.7,30.05,SE,132,1.0,3.0,53,0.00,,,0.00,Wunderground v.1.15,2013-07-28 09:37:00,
2013-07-28 05:38:00,54.3,51.4,30.02,SW,232,0.0,0.0,90,0.00,,,0.00,Wunderground v.1.15,2013-07-28 09:38:00,
2013-07-28 05:39:00,75.9,57.5,30.05,West,267,1.0,3.0,53,0.00,,,0.00,Wunderground v.1.15,2013-07-28 09:39:00,
2013-07-28 05:41:00,54.3,51.4,30.02,SW,232,0.0,0.0,90,0.00,,,0.00,Wunderground v.1.15,2013-07-28 09:41:00,
2013-07-28 05:42:00,75.9,57.5,30.05,West,281,1.0,1.0,53,0.00,,,0.00,Wunderground v.1.15,2013-07-28 09:42:00,
2013-07-28 05:43:00,75.9,57.0,30.05,West,281,1.0,1.0,52,0.00,,,0.00,Wunderground v.1.15,2013-07-28 09:43:00,
2013-07-28 05:44:00,75.8,57.4,30.05,West,281,1.0,1.0,53,0.00,,,0.00,Wunderground v.1.15,2013-07-28 09:44:00,
2013-07-28 05:45:00,54.2,51.3,30.02,SW,232,0.0,0.0,90,0.00,,,0.00,Wunderground v.1.15,2013-07-28 09:45:00,
2013-07-28 05:47:00,75.5,58.7,30.05,West,281,0.0,2.0,56,0.00,,,0.00,Wunderground v.1.15,2013-07-28 09:47:00,
2013-07-28 05:48:00,75.4,56.5,30.05,SW,223,0.0,2.0,52,0.00,,,0.00,Wunderground v.1.15,2013-07-28 09:48:00,
2013-07-28 05:49:00,54.1,51.2,30.02,SW,232,0.0,0.0,90,0.00,,,0.00,Wunderground v.1.15,2013-07-28 09:49:00,
2013-07-28 05:50:00,75.3,57.5,30.05,SW,223,0.0,0.0,54,0.00,,,0.00,Wunderground v.1.15,2013-07-28 09:50:00,
2013-07-28 05:52:00,74.9,55.6,30.05,West,276,0.0,0.0,51,0.00,,,0.00,Wunderground v.1.15,2013-07-28 09:52:00,
2013-07-28 05:53:00,74.8,56.5,30.05,West,264,0.0,1.0,53,0.00,,,0.00,Wunderground v.1.15,2013-07-28 09:53:00,
2013-07-28 05:54:00,54.1,51.5,30.02,SW,232,0.0,0.0,91,0.00,,,0.00,Wunderground v.1.15,2013-07-28 09:54:00,
2013-07-28 05:55:00,54.0,51.4,30.02,SW,232,0.0,0.0,91,0.00,,,0.00,Wunderground v.1.15,2013-07-28 09:55:00,
2013-07-28 05:56:00,53.9,51.3,30.02,SW,232,0.0,0.0,91,0.00,,,0.00,Wunderground v.1.15,2013-07-28 09:56:00,
2013-07-28 05:59:00,53.9,51.3,30.03,SW,232,0.0,0.0,91,0.00,,,0.00,Wunderground v.1.15,2013-07-28 09:59:00,
2013-07-28 06:00:00,53.9,51.3,30.03,SW,232,0.0,0.0,91,0.00,,,0.00,Wunderground v.1.15,2013-07-28 10:00:00,
2013-07-28 06:01:00,75.4,57.6,30.05,South,182,1.0,5.0,54,0.00,,,0.00,Wunderground v.1.15,2013-07-28 10:01:00,
2013-07-28 06:02:00,53.9,51.3,30.03,SW,232,0.0,0.0,91,0.00,,,0.00,Wunderground v.1.15,2013-07-28 10:02:00,
2013-07-28 06:03:00,75.6,58.3,30.05,South,189,1.0,5.0,55,0.00,,,0.00,Wunderground v.1.15,2013-07-28 10:03:00,
2013-07-28 06:04:00,75.7,59.4,30.05,North,350,1.0,5.0,57,0.00,,,0.00,Wunderground v.1.15,2013-07-28 10:04:00,
2013-07-28 06:05:00,75.7,57.4,30.05,NNW,344,1.0,5.0,53,0.00,,,0.00,Wunderground v.1.15,2013-07-28 10:05:00,
2013-07-28 06:06:00,53.8,51.2,30.03,SW,232,0.0,0.0,91,0.00,,,0.00,Wunderground v.1.15,2013-07-28 10:06:00,
2013-07-28 06:07:00,53.7,51.1,30.03,SW,232,0.0,0.0,91,0.00,,,0.00,Wunderground v.1.15,2013-07-28 10:07:00,
2013-07-28 06:08:00,75.7,57.9,30.05,SSW,192,1.0,5.0,54,0.00,,,0.00,Wunderground v.1.15,2013-07-28 10:08:00,
2013-07-28 06:09:00,53.7,51.1,30.03,SW,232,0.0,0.0,91,0.00,,,0.00,Wunderground v.1.15,2013-07-28 10:09:00,
2013-07-28 06:10:00,75.7,56.8,30.05,South,184,1.0,1.0,52,0.00,,,0.00,Wunderground v.1.15,2013-07-28 10:10:00,
2013-07-28 06:11:00,75.6,57.8,30.05,South,186,1.0,1.0,54,0.00,,,0.00,Wunderground v.1.15,2013-07-28 10:11:00,
2013-07-28 06:12:00,53.7,51.1,30.03,SW,232,0.0,0.0,91,0.00,,,0.00,Wunderground v.1.15,2013-07-28 10:12:00,
2013-07-28 06:14:00,53.7,51.1,30.03,SW,232,0.0,0.0,91,0.00,,,0.00,Wunderground v.1.15,2013-07-28 10:14:00,
2013-07-28 06:16:00,75.1,57.8,30.05,South,184,1.0,5.0,55,0.00,,,0.00,Wunderground v.1.15,2013-07-28 10:16:00,
2013-07-28 06:17:00,53.7,51.1,30.03,SW,232,0.0,0.0,91,0.00,,,0.00,Wunderground v.1.15,2013-07-28 10:17:00,
2013-07-28 06:18:00,74.8,57.5,30.05,West,265,1.0,5.0,55,0.00,,,0.00,Wunderground v.1.15,2013-07-28 10:18:00,
2013-07-28 06:19:00,74.7,56.4,30.05,South,175,1.0,5.0,53,0.00,,,0.00,Wunderground v.1.15,2013-07-28 10:19:00,
2013-07-28 06:20:00,53.6,51.0,30.04,SW,232,0.0,0.0,91,0.00,,,0.00,Wunderground v.1.15,2013-07-28 10:20:00,
2013-07-28 06:21:00,74.5,57.3,30.05,South,174,1.0,1.0,55,0.00,,,0.00,Wunderground v.1.15,2013-07-28 10:21:00,
2013-07-28 06:22:00,74.5,56.8,30.05,South,174,1.0,1.0,54,0.00,,,0.00,Wunderground v.1.15,2013-07-28 10:22:00,
2013-07-28 06:23:00,53.5,50.9,30.04,SW,232,0.0,0.0,91,0.00,,,0.00,Wunderground v.1.15,2013-07-28 10:23:00,
2013-07-28 06:24:00,53.5,50.9,30.04,SW,232,0.0,0.0,91,0.00,,,0.00,Wunderground v.1.15,2013-07-28 10:24:00,
2013-07-28 06:25:00,74.2,56.5,30.05,WSW,246,1.0,1.0,54,0.00,,,0.00,Wunderground v.1.15,2013-07-28 10:25:00,
2013-07-28 06:26:00,74.3,56.6,30.05,NW,322,1.0,1.0,54,0.00,,,0.00,Wunderground v.1.15,2013-07-28 10:26:00,
2013-07-28 06:27:00,74.3,57.1,30.05,NW,321,0.0,1.0,55,0.00,,,0.00,Wunderground v.1.15,2013-07-28 10:27:00,
2013-07-28 06:29:00,74.4,58.2,30.05,SW,234,0.0,1.0,57,0.00,,,0.00,Wunderground v.1.15,2013-07-28 10:29:00,
2013-07-28 06:30:00,53.4,50.8,30.04,SW,232,0.0,0.0,91,0.00,,,0.00,Wunderground v.1.15,2013-07-28 10:30:00,
2013-07-28 06:31:00,74.4,56.2,30.05,NNE,26,0.0,0.0,53,0.00,,,0.00,Wunderground v.1.15,2013-07-28 10:31:00,
2013-07-28 06:32:00,53.3,50.7,30.05,SW,232,0.0,0.0,91,0.00,,,0.00,Wunderground v.1.15,2013-07-28 10:32:00,
2013-07-28 06:33:00,74.2,56.0,30.05,NNE,26,0.0,2.0,53,0.00,,,0.00,Wunderground v.1.15,2013-07-28 10:33:00,
2013-07-28 06:35:00,53.2,50.6,30.05,SW,232,0.0,0.0,91,0.00,,,0.00,Wunderground v.1.15,2013-07-28 10:35:00,
2013-07-28 06:36:00,73.8,57.6,30.05,NW,321,0.0,3.0,57,0.00,,,0.00,Wunderground v.1.15,2013-07-28 10:36:00,
2013-07-28 06:37:00,53.2,50.6,30.05,SW,232,0.0,0.0,91,0.00,,,0.00,Wunderground v.1.15,2013-07-28 10:37:00,
2013-07-28 06:38:00,53.1,50.5,30.04,SW,232,0.0,0.0,91,0.00,,,0.00,Wunderground v.1.15,2013-07-28 10:38:00,
2013-07-28 06:39:00,53.1,50.5,30.04,SW,232,0.0,0.0,91,0.00,,,0.00,Wunderground v.1.15,2013-07-28 10:39:00,
2013-07-28 06:40:00,53.1,50.5,30.05,SW,232,0.0,0.0,91,0.00,,,0.00,Wunderground v.1.15,2013-07-28 10:40:00,
2013-07-28 06:41:00,73.6,57.4,30.05,SW,219,1.0,6.0,57,0.00,,,0.00,Wunderground v.1.15,2013-07-28 10:41:00,
2013-07-28 06:42:00,53.1,50.5,30.05,SW,232,0.0,0.0,91,0.00,,,0.00,Wunderground v.1.15,2013-07-28 10:42:00,
2013-07-28 06:43:00,73.4,57.2,30.05,WNW,284,2.0,6.0,57,0.00,,,0.00,Wunderground v.1.15,2013-07-28 10:43:00,
2013-07-28 06:44:00,53.0,50.4,30.05,SW,232,0.0,0.0,91,0.00,,,0.00,Wunderground v.1.15,2013-07-28 10:44:00,
2013-07-28 06:45:00,53.0,50.4,30.05,SW,232,0.0,0.0,91,0.00,,,0.00,Wunderground v.1.15,2013-07-28 10:45:00,
2013-07-28 06:46:00,73.3,55.6,30.05,WSW,255,2.0,6.0,54,0.00,,,0.00,Wunderground v.1.15,2013-07-28 10:46:00,
2013-07-28 06:47:00,53.0,50.7,30.05,SW,232,0.0,0.0,92,0.00,,,0.00,Wunderground v.1.15,2013-07-28 10:47:00,
2013-07-28 06:50:00,53.0,50.7,30.05,SW,232,0.0,0.0,92,0.00,,,0.00,Wunderground v.1.15,2013-07-28 10:50:00,
2013-07-28 06:51:00,73.0,55.9,30.05,West,267,1.0,1.0,55,0.00,,,0.00,Wunderground v.1.15,2013-07-28 10:51:00,
2013-07-28 06:52:00,72.9,56.8,30.05,West,267,1.0,1.0,57,0.00,,,0.00,Wunderground v.1.15,2013-07-28 10:52:00,
2013-07-28 06:53:00,53.0,50.7,30.05,SW,232,0.0,0.0,92,0.00,,,0.00,Wunderground v.1.15,2013-07-28 10:53:00,
2013-07-28 06:54:00,53.0,50.7,30.05,SW,232,0.0,0.0,92,0.00,,,0.00,Wunderground v.1.15,2013-07-28 10:54:00,
2013-07-28 06:56:00,72.5,55.9,30.05,West,267,0.0,1.0,56,0.00,,,0.00,Wunderground v.1.15,2013-07-28 10:56:00,
2013-07-28 06:57:00,72.5,55.9,30.05,West,267,0.0,1.0,56,0.00,,,0.00,Wunderground v.1.15,2013-07-28 10:57:00,
2013-07-28 06:58:00,53.0,50.7,30.05,SW,232,0.0,0.0,92,0.00,,,0.00,Wunderground v.1.15,2013-07-28 10:58:00,
2013-07-28 07:00:00,53.0,50.7,30.05,SW,232,0.0,0.0,92,0.00,,,0.00,Wunderground v.1.15,2013-07-28 11:00:00,
2013-07-28 07:01:00,72.5,55.4,30.05,SW,230,1.0,1.0,55,0.00,,,0.00,Wunderground v.1.15,2013-07-28 11:01:00,
2013-07-28 07:02:00,72.4,55.3,30.05,West,265,1.0,1.0,55,0.00,,,0.00,Wunderground v.1.15,2013-07-28 11:02:00,
2013-07-28 07:03:00,72.4,56.3,30.05,WNW,301,1.0,1.0,57,0.00,,,0.00,Wunderground v.1.15,2013-07-28 11:03:00,
2013-07-28 07:04:00,53.0,50.7,30.05,SW,232,0.0,0.0,92,0.00,,,0.00,Wunderground v.1.15,2013-07-28 11:04:00,
2013-07-28 07:05:00,53.0,50.7,30.05,SW,232,0.0,0.0,92,0.00,,,0.00,Wunderground v.1.15,2013-07-28 11:05:00,
2013-07-28 07:06:00,53.0,50.7,30.05,SW,232,0.0,0.0,92,0.00,,,0.00,Wunderground v.1.15,2013-07-28 11:06:00,
2013-07-28 07:10:00,52.9,50.6,30.06,SW,232,0.0,0.0,92,0.00,,,0.00,Wunderground v.1.15,2013-07-28 11:10:00,
2013-07-28 07:11:00,72.0,54.9,30.05,NNE,32,0.0,0.0,55,0.00,,,0.00,Wunderground v.1.15,2013-07-28 11:11:00,
2013-07-28 07:12:00,52.8,50.5,30.06,SW,232,0.0,0.0,92,0.00,,,0.00,Wunderground v.1.15,2013-07-28 11:12:00,
2013-07-28 07:13:00,72.1,55.5,30.05,NW,315,0.0,0.0,56,0.00,,,0.00,Wunderground v.1.15,2013-07-28 11:13:00,
2013-07-28 07:14:00,72.1,55.5,30.05,NW,313,0.0,1.0,56,0.00,,,0.00,Wunderground v.1.15,2013-07-28 11:14:00,
2013-07-28 07:15:00,52.8,50.5,30.06,SW,232,0.0,0.0,92,0.00,,,0.00,Wunderground v.1.15,2013-07-28 11:15:00,
2013-07-28 07:16:00,52.8,50.5,30.06,SW,232,0.0,0.0,92,0.00,,,0.00,Wunderground v.1.15,2013-07-28 11:16:00,
2013-07-28 07:17:00,72.2,56.1,30.06,WNW,289,0.0,1.0,57,0.00,,,0.00,Wunderground v.1.15,2013-07-28 11:17:00,
2013-07-28 07:19:00,72.3,55.7,30.06,WNW,301,0.0,1.0,56,0.00,,,0.00,Wunderground v.1.15,2013-07-28 11:19:00,
2013-07-28 07:20:00,72.3,55.7,30.06,North,355,1.0,2.0,56,0.00,,,0.00,Wunderground v.1.15,2013-07-28 11:20:00,
2013-07-28 07:21:00,52.8,50.5,30.06,SW,232,0.0,0.0,92,0.00,,,0.00,Wunderground v.1.15,2013-07-28 11:21:00,
2013-07-28 07:23:00,72.2,55.6,30.05,North,355,1.0,2.0,56,0.00,,,0.00,Wunderground v.1.15,2013-07-28 11:23:00,
2013-07-28 07:24:00,72.1,55.5,30.06,North,355,1.0,2.0,56,0.00,,,0.00,Wunderground v.1.15,2013-07-28 11:24:00,
2013-07-28 07:26:00,52.9,50.6,30.06,SW,232,0.0,0.0,92,0.00,,,0.00,Wunderground v.1.15,2013-07-28 11:26:00,
2013-07-28 07:27:00,72.1,56.0,30.06,West,273,1.0,2.0,57,0.00,,,0.00,Wunderground v.1.15,2013-07-28 11:27:00,
2013-07-28 07:28:00,52.9,50.6,30.06,SW,232,0.0,0.0,92,0.00,,,0.00,Wunderground v.1.15,2013-07-28 11:28:00,
2013-07-28 07:32:00,53.0,50.7,30.06,SW,232,0.0,0.0,92,0.00,,,0.00,Wunderground v.1.15,2013-07-28 11:32:00,
2013-07-28 07:34:00,53.0,50.7,30.06,SW,232,0.0,0.0,92,0.00,,,0.00,Wunderground v.1.15,2013-07-28 11:34:00,
2013-07-28 07:37:00,53.1,50.8,30.06,SW,232,0.0,0.0,92,0.00,,,0.00,Wunderground v.1.15,2013-07-28 11:37:00,
2013-07-28 07:38:00,72.2,56.6,30.06,WSW,241,0.0,1.0,58,0.00,,,0.00,Wunderground v.1.15,2013-07-28 11:38:00,
2013-07-28 07:40:00,53.1,50.8,30.06,SW,232,0.0,0.0,92,0.00,,,0.00,Wunderground v.1.15,2013-07-28 11:40:00,
2013-07-28 07:41:00,71.9,57.3,30.06,SSE,149,0.0,0.0,60,0.00,,,0.00,Wunderground v.1.15,2013-07-28 11:41:00,
2013-07-28 07:47:00,53.3,51.3,30.06,SW,232,0.0,0.0,93,0.00,,,0.00,Wunderground v.1.15,2013-07-28 11:47:00,
2013-07-28 07:59:00,53.6,51.6,30.06,SW,232,0.0,0.0,93,0.00,,,0.00,Wunderground v.1.15,2013-07-28 11:59:00,
2013-07-28 08:06:00,53.8,51.8,30.06,SW,232,0.0,0.0,93,0.00,,,0.00,Wunderground v.1.15,2013-07-28 12:06:00,
2013-07-28 08:17:00,54.2,52.2,30.06,SW,232,0.0,0.0,93,0.00,,,0.00,Wunderground v.1.15,2013-07-28 12:17:00,
2013-07-28 08:30:00,54.8,52.5,30.06,SW,232,0.0,0.0,92,0.00,,,0.00,Wunderground v.1.15,2013-07-28 12:30:00,
2013-07-28 08:39:00,55.4,53.1,30.06,SW,232,0.0,0.0,92,0.00,,,0.00,Wunderground v.1.15,2013-07-28 12:39:00,
2013-07-28 08:46:00,56.0,53.4,30.06,SW,232,0.0,0.0,91,0.00,,,0.00,Wunderground v.1.15,2013-07-28 12:46:00,
2013-07-28 08:52:00,56.5,53.3,30.06,SW,232,0.0,0.0,89,0.00,,,0.00,Wunderground v.1.15,2013-07-28 12:52:00,
2013-07-28 08:59:00,57.4,53.9,30.06,SW,232,0.0,0.0,88,0.00,,,0.00,Wunderground v.1.15,2013-07-28 12:59:00,
2013-07-28 09:13:00,58.7,54.5,30.06,SW,232,0.0,1.0,86,0.00,,,0.00,Wunderground v.1.15,2013-07-28 13:13:00,
2013-07-28 09:14:00,58.9,54.4,30.06,SW,231,0.0,1.0,85,0.00,,,0.00,Wunderground v.1.15,2013-07-28 13:14:00,
2013-07-28 09:21:00,59.4,53.9,30.06,SW,231,0.0,1.0,82,0.00,,,0.00,Wunderground v.1.15,2013-07-28 13:21:00,
2013-07-28 09:22:00,59.5,54.3,30.06,SW,231,0.0,1.0,83,0.00,,,0.00,Wunderground v.1.15,2013-07-28 13:22:00,
2013-07-28 09:29:00,60.0,53.5,30.07,SW,233,0.0,1.0,79,0.00,,,0.00,Wunderground v.1.15,2013-07-28 13:29:00,
2013-07-28 09:30:00,60.1,53.6,30.07,SW,233,0.0,1.0,79,0.00,,,0.00,Wunderground v.1.15,2013-07-28 13:30:00,
2013-07-28 09:33:00,60.3,53.4,30.07,SW,233,0.0,1.0,78,0.00,,,0.00,Wunderground v.1.15,2013-07-28 13:33:00,
2013-07-28 09:35:00,60.5,53.6,30.07,SW,233,0.0,1.0,78,0.00,,,0.00,Wunderground v.1.15,2013-07-28 13:35:00,
2013-07-28 09:40:00,61.0,54.1,30.07,SW,233,0.0,0.0,78,0.00,,,0.00,Wunderground v.1.15,2013-07-28 13:40:00,
2013-07-28 09:45:00,61.4,53.4,30.07,SW,233,0.0,0.0,75,0.00,,,0.00,Wunderground v.1.15,2013-07-28 13:45:00,
2013-07-28 09:47:00,61.5,53.1,30.07,SW,233,0.0,0.0,74,0.00,,,0.00,Wunderground v.1.15,2013-07-28 13:47:00,
2013-07-28 09:49:00,61.7,53.3,30.07,SW,233,0.0,0.0,74,0.00,,,0.00,Wunderground v.1.15,2013-07-28 13:49:00,
2013-07-28 09:52:00,62.0,54.7,30.08,SW,233,0.0,0.0,77,0.00,,,0.00,Wunderground v.1.15,2013-07-28 13:52:00,
2013-07-28 09:56:00,62.3,54.3,30.08,WSW,242,0.0,0.0,75,0.00,,,0.00,Wunderground v.1.15,2013-07-28 13:56:00,
2013-07-28 09:57:00,62.3,53.9,30.08,WSW,242,0.0,0.0,74,0.00,,,0.00,Wunderground v.1.15,2013-07-28 13:57:00,
2013-07-28 09:58:00,62.4,54.0,30.08,WSW,242,0.0,0.0,74,0.00,,,0.00,Wunderground v.1.15,2013-07-28 13:58:00,
2013-07-28 10:03:00,62.7,54.3,30.08,SSW,203,0.0,0.0,74,0.00,,,0.00,Wunderground v.1.15,2013-07-28 14:03:00,
2013-07-28 10:05:00,62.8,54.4,30.08,SSW,203,0.0,0.0,74,0.00,,,0.00,Wunderground v.1.15,2013-07-28 14:05:00,
2013-07-28 10:07:00,62.9,52.6,30.08,SSW,205,0.0,1.0,69,0.00,,,0.00,Wunderground v.1.15,2013-07-28 14:07:00,
2013-07-28 10:10:00,63.1,53.2,30.08,SW,215,0.0,1.0,70,0.00,,,0.00,Wunderground v.1.15,2013-07-28 14:10:00,
2013-07-28 10:11:00,63.2,53.6,30.08,SW,215,0.0,1.0,71,0.00,,,0.00,Wunderground v.1.15,2013-07-28 14:11:00,
2013-07-28 10:13:00,63.5,53.5,30.08,SW,217,0.0,2.0,70,0.00,,,0.00,Wunderground v.1.15,2013-07-28 14:13:00,
2013-07-28 10:16:00,63.7,54.5,30.08,SW,217,0.0,2.0,72,0.00,,,0.00,Wunderground v.1.15,2013-07-28 14:16:00,
2013-07-28 10:17:00,63.8,53.4,30.08,West,272,0.0,2.0,69,0.00,,,0.00,Wunderground v.1.15,2013-07-28 14:17:00,
2013-07-28 10:19:00,63.9,52.7,30.08,WNW,282,0.0,0.0,67,0.00,,,0.00,Wunderground v.1.15,2013-07-28 14:19:00,
2013-07-28 10:20:00,65.6,55.9,30.08,West,278,0.0,0.0,71,0.00,,,0.00,Wunderground v.1.15,2013-07-28 14:20:00,
2013-07-28 10:21:00,65.6,55.9,30.08,West,278,0.0,0.0,71,0.00,,,0.00,Wunderground v.1.15,2013-07-28 14:21:00,
2013-07-28 10:22:00,64.2,53.8,30.08,NNW,336,0.0,0.0,69,0.00,,,0.00,Wunderground v.1.15,2013-07-28 14:22:00,
2013-07-28 10:23:00,64.3,53.1,30.08,NNW,336,0.0,0.0,67,0.00,,,0.00,Wunderground v.1.15,2013-07-28 14:23:00,
2013-07-28 10:24:00,64.3,52.7,30.08,SSW,193,0.0,1.0,66,0.00,,,0.00,Wunderground v.1.15,2013-07-28 14:24:00,
2013-07-28 10:26:00,65.4,56.5,30.08,West,278,0.0,0.0,73,0.00,,,0.00,Wunderground v.1.15,2013-07-28 14:26:00,
2013-07-28 10:28:00,64.5,54.5,30.08,South,189,0.0,0.0,70,0.00,,,0.00,Wunderground v.1.15,2013-07-28 14:28:00,
2013-07-28 10:30:00,64.6,53.4,30.08,WSW,242,0.0,1.0,67,0.00,,,0.00,Wunderground v.1.15,2013-07-28 14:30:00,
2013-07-28 10:31:00,64.7,53.5,30.09,WSW,242,0.0,1.0,67,0.00,,,0.00,Wunderground v.1.15,2013-07-28 14:31:00,
2013-07-28 10:33:00,65.1,57.0,30.09,West,278,0.0,0.0,75,0.00,,,0.00,Wunderground v.1.15,2013-07-28 14:33:00,
2013-07-28 10:36:00,64.9,53.3,30.08,WSW,242,0.0,1.0,66,0.00,,,0.00,Wunderground v.1.15,2013-07-28 14:36:00,
2013-07-28 10:37:00,65.1,54.3,30.09,WSW,242,0.0,1.0,68,0.00,,,0.00,Wunderground v.1.15,2013-07-28 14:37:00,
2013-07-28 10:38:00,65.2,54.4,30.09,WSW,242,0.0,0.0,68,0.00,,,0.00,Wunderground v.1.15,2013-07-28 14:38:00,
2013-07-28 10:39:00,64.9,56.8,30.09,West,278,0.0,0.0,75,0.00,,,0.00,Wunderground v.1.15,2013-07-28 14:39:00,
2013-07-28 10:40:00,64.9,56.8,30.09,West,278,0.0,0.0,75,0.00,,,0.00,Wunderground v.1.15,2013-07-28 14:40:00,
2013-07-28 10:41:00,64.8,56.7,30.09,West,278,0.0,0.0,75,0.00,,,0.00,Wunderground v.1.15,2013-07-28 14:41:00,
2013-07-28 10:42:00,65.6,53.5,30.09,SE,128,0.0,1.0,65,0.00,,,0.00,Wunderground v.1.15,2013-07-28 14:42:00,
2013-07-28 10:43:00,65.6,53.1,30.09,SSW,212,0.0,1.0,64,0.00,,,0.00,Wunderground v.1.15,2013-07-28 14:43:00,
2013-07-28 10:44:00,64.7,56.6,30.09,West,278,0.0,0.0,75,0.00,,,0.00,Wunderground v.1.15,2013-07-28 14:44:00,
2013-07-28 10:45:00,64.7,56.6,30.09,West,278,0.0,0.0,75,0.00,,,0.00,Wunderground v.1.15,2013-07-28 14:45:00,
2013-07-28 10:46:00,64.7,56.6,30.09,West,278,0.0,0.0,75,0.00,,,0.00,Wunderground v.1.15,2013-07-28 14:46:00,
2013-07-28 10:47:00,64.7,56.6,30.09,West,278,0.0,0.0,75,0.00,,,0.00,Wunderground v.1.15,2013-07-28 14:47:00,
2013-07-28 10:48:00,64.6,56.5,30.09,West,278,0.0,0.0,75,0.00,,,0.00,Wunderground v.1.15,2013-07-28 14:48:00,
2013-07-28 10:49:00,65.8,54.1,30.09,SW,234,1.0,1.0,66,0.00,,,0.00,Wunderground v.1.15,2013-07-28 14:49:00,
2013-07-28 10:51:00,64.5,56.4,30.09,West,278,0.0,0.0,75,0.00,,,0.00,Wunderground v.1.15,2013-07-28 14:51:00,
2013-07-28 10:52:00,64.5,56.4,30.09,West,278,0.0,0.0,75,0.00,,,0.00,Wunderground v.1.15,2013-07-28 14:52:00,
2013-07-28 10:53:00,65.9,52.9,30.09,WSW,257,1.0,2.0,63,0.00,,,0.00,Wunderground v.1.15,2013-07-28 14:53:00,
2013-07-28 10:54:00,64.5,55.3,30.09,West,278,0.0,0.0,72,0.00,,,0.00,Wunderground v.1.15,2013-07-28 14:54:00,
2013-07-28 10:55:00,66.1,53.6,30.09,NW,314,1.0,2.0,64,0.00,,,0.00,Wunderground v.1.15,2013-07-28 14:55:00,
2013-07-28 10:56:00,64.4,55.2,30.09,West,278,0.0,0.0,72,0.00,,,0.00,Wunderground v.1.15,2013-07-28 14:56:00,
2013-07-28 10:57:00,64.4,55.2,30.09,West,278,0.0,0.0,72,0.00,,,0.00,Wunderground v.1.15,2013-07-28 14:57:00,
2013-07-28 10:58:00,66.3,52.4,30.09,SW,223,0.0,2.0,61,0.00,,,0.00,Wunderground v.1.15,2013-07-28 14:58:00,
2013-07-28 10:59:00,64.4,55.2,30.09,West,278,0.0,0.0,72,0.00,,,0.00,Wunderground v.1.15,2013-07-28 14:59:00,
2013-07-28 11:00:00,66.4,53.0,30.09,NW,324,0.0,2.0,62,0.00,,,0.00,Wunderground v.1.15,2013-07-28 15:00:00,
2013-07-28 11:01:00,64.5,57.1,30.09,West,278,0.0,0.0,77,0.00,,,0.00,Wunderground v.1.15,2013-07-28 15:01:00,
2013-07-28 11:02:00,66.4,52.5,30.09,NW,324,1.0,2.0,61,0.00,,,0.00,Wunderground v.1.15,2013-07-28 15:02:00,
2013-07-28 11:03:00,64.5,57.5,30.09,West,278,0.0,0.0,78,0.00,,,0.00,Wunderground v.1.15,2013-07-28 15:03:00,
2013-07-28 11:05:00,66.7,53.3,30.09,NNE,33,1.0,2.0,62,0.00,,,0.00,Wunderground v.1.15,2013-07-28 15:05:00,
2013-07-28 11:06:00,64.4,57.0,30.10,West,278,0.0,0.0,77,0.00,,,0.00,Wunderground v.1.15,2013-07-28 15:06:00,
2013-07-28 11:07:00,64.3,56.9,30.10,West,278,0.0,0.0,77,0.00,,,0.00,Wunderground v.1.15,2013-07-28 15:07:00,
2013-07-28 11:08:00,64.2,56.8,30.10,West,278,0.0,0.0,77,0.00,,,0.00,Wunderground v.1.15,2013-07-28 15:08:00,
2013-07-28 11:09:00,64.1,56.7,30.10,West,278,0.0,0.0,77,0.00,,,0.00,Wunderground v.1.15,2013-07-28 15:09:00,
2013-07-28 11:10:00,67.1,54.1,30.09,West,266,1.0,3.0,63,0.00,,,0.00,Wunderground v.1.15,2013-07-28 15:10:00,
2013-07-28 11:11:00,64.1,56.7,30.10,West,278,0.0,0.0,77,0.00,,,0.00,Wunderground v.1.15,2013-07-28 15:11:00,
2013-07-28 11:12:00,64.0,56.6,30.10,West,278,0.0,0.0,77,0.00,,,0.00,Wunderground v.1.15,2013-07-28 15:12:00,
2013-07-28 11:13:00,67.4,54.4,30.09,NW,307,1.0,3.0,63,0.00,,,0.00,Wunderground v.1.15,2013-07-28 15:13:00,
2013-07-28 11:14:00,63.9,56.5,30.10,West,278,0.0,0.0,77,0.00,,,0.00,Wunderground v.1.15,2013-07-28 15:14:00,
2013-07-28 11:15:00,67.5,54.9,30.09,NNE,31,1.0,3.0,64,0.00,,,0.00,Wunderground v.1.15,2013-07-28 15:15:00,
2013-07-28 11:16:00,63.9,57.3,30.10,West,278,0.0,0.0,79,0.00,,,0.00,Wunderground v.1.15,2013-07-28 15:16:00,
2013-07-28 11:17:00,67.6,52.8,30.09,SW,229,1.0,3.0,59,0.00,,,0.00,Wunderground v.1.15,2013-07-28 15:17:00,
2013-07-28 11:18:00,63.8,57.2,30.10,West,278,0.0,0.0,79,0.00,,,0.00,Wunderground v.1.15,2013-07-28 15:18:00,
2013-07-28 11:19:00,63.7,57.1,30.10,West,278,0.0,0.0,79,0.00,,,0.00,Wunderground v.1.15,2013-07-28 15:19:00,
2013-07-28 11:20:00,63.7,57.1,30.10,West,278,0.0,0.0,79,0.00,,,0.00,Wunderground v.1.15,2013-07-28 15:20:00,
2013-07-28 11:21:00,63.7,57.1,30.10,West,278,0.0,0.0,79,0.00,,,0.00,Wunderground v.1.15,2013-07-28 15:21:00,
2013-07-28 11:22:00,63.6,57.0,30.10,West,278,0.0,0.0,79,0.00,,,0.00,Wunderground v.1.15,2013-07-28 15:22:00,
2013-07-28 11:23:00,67.9,51.1,30.09,WSW,242,1.0,1.0,55,0.00,,,0.00,Wunderground v.1.15,2013-07-28 15:23:00,
2013-07-28 11:24:00,63.5,56.5,30.10,West,278,0.0,0.0,78,0.00,,,0.00,Wunderground v.1.15,2013-07-28 15:24:00,
2013-07-28 11:25:00,68.1,51.8,30.09,WSW,242,1.0,1.0,56,0.00,,,0.00,Wunderground v.1.15,2013-07-28 15:25:00,
2013-07-28 11:26:00,63.4,55.3,30.10,West,278,0.0,0.0,75,0.00,,,0.00,Wunderground v.1.15,2013-07-28 15:26:00,
2013-07-28 11:27:00,63.3,55.2,30.10,West,278,0.0,0.0,75,0.00,,,0.00,Wunderground v.1.15,2013-07-28 15:27:00,
2013-07-28 11:28:00,63.3,55.2,30.10,West,278,0.0,0.0,75,0.00,,,0.00,Wunderground v.1.15,2013-07-28 15:28:00,
2013-07-28 11:29:00,68.4,52.6,30.09,WNW,286,0.0,2.0,57,0.00,,,0.00,Wunderground v.1.15,2013-07-28 15:29:00,
2013-07-28 11:30:00,63.1,55.0,30.10,West,278,0.0,0.0,75,0.00,,,0.00,Wunderground v.1.15,2013-07-28 15:30:00,
2013-07-28 11:31:00,63.1,55.0,30.10,West,278,0.0,0.0,75,0.00,,,0.00,Wunderground v.1.15,2013-07-28 15:31:00,
2013-07-28 11:32:00,68.5,51.2,30.09,NNE,25,0.0,2.0,54,0.00,,,0.00,Wunderground v.1.15,2013-07-28 15:32:00,
2013-07-28 11:33:00,63.1,55.4,30.10,West,278,0.0,0.0,76,0.00,,,0.00,Wunderground v.1.15,2013-07-28 15:33:00,
2013-07-28 11:34:00,63.0,54.9,30.10,West,278,0.0,0.0,75,0.00,,,0.00,Wunderground v.1.15,2013-07-28 15:34:00,
2013-07-28 11:35:00,68.6,52.3,30.09,NE,36,0.0,2.0,56,0.00,,,0.00,Wunderground v.1.15,2013-07-28 15:35:00,
2013-07-28 11:37:00,63.0,54.6,30.10,West,278,0.0,0.0,74,0.00,,,0.00,Wunderground v.1.15,2013-07-28 15:37:00,
2013-07-28 11:38:00,63.0,55.3,30.10,West,278,0.0,0.0,76,0.00,,,0.00,Wunderground v.1.15,2013-07-28 15:38:00,
2013-07-28 11:39:00,63.0,55.3,30.10,West,278,0.0,0.0,76,0.00,,,0.00,Wunderground v.1.15,2013-07-28 15:39:00,
2013-07-28 11:40:00,63.0,54.9,30.10,West,278,0.0,0.0,75,0.00,,,0.00,Wunderground v.1.15,2013-07-28 15:40:00,
2013-07-28 11:41:00,63.0,54.9,30.10,West,278,0.0,0.0,75,0.00,,,0.00,Wunderground v.1.15,2013-07-28 15:41:00,
2013-07-28 11:42:00,63.0,54.9,30.10,West,278,0.0,0.0,75,0.00,,,0.00,Wunderground v.1.15,2013-07-28 15:42:00,
2013-07-28 11:43:00,63.0,55.3,30.10,West,278,0.0,0.0,76,0.00,,,0.00,Wunderground v.1.15,2013-07-28 15:43:00,
2013-07-28 11:44:00,69.3,53.4,30.09,SSW,208,1.0,1.0,57,0.00,,,0.00,Wunderground v.1.15,2013-07-28 15:44:00,
2013-07-28 11:46:00,69.5,55.9,30.09,SSW,208,1.0,1.0,62,0.00,,,0.00,Wunderground v.1.15,2013-07-28 15:46:00,
2013-07-28 11:47:00,62.9,54.9,30.10,West,278,0.0,0.0,75,0.00,,,0.00,Wunderground v.1.15,2013-07-28 15:47:00,
2013-07-28 11:48:00,69.6,53.2,30.09,SSW,208,1.0,1.0,56,0.00,,,0.00,Wunderground v.1.15,2013-07-28 15:48:00,
2013-07-28 11:49:00,62.9,54.9,30.10,West,278,0.0,0.0,75,0.00,,,0.00,Wunderground v.1.15,2013-07-28 15:49:00,
2013-07-28 11:50:00,62.9,55.2,30.10,West,278,0.0,0.0,76,0.00,,,0.00,Wunderground v.1.15,2013-07-28 15:50:00,
2013-07-28 11:51:00,62.9,55.2,30.10,West,278,0.0,0.0,76,0.00,,,0.00,Wunderground v.1.15,2013-07-28 15:51:00,
2013-07-28 11:52:00,70.1,54.6,30.09,WSW,246,0.0,3.0,58,0.00,,,0.00,Wunderground v.1.15,2013-07-28 15:52:00,
2013-07-28 11:53:00,62.8,55.5,30.10,West,278,0.0,0.0,77,0.00,,,0.00,Wunderground v.1.15,2013-07-28 15:53:00,
2013-07-28 11:54:00,62.8,55.5,30.10,West,278,0.0,0.0,77,0.00,,,0.00,Wunderground v.1.15,2013-07-28 15:54:00,
2013-07-28 11:55:00,62.8,55.8,30.11,West,278,0.0,0.0,78,0.00,,,0.00,Wunderground v.1.15,2013-07-28 15:55:00,
2013-07-28 11:56:00,62.8,55.8,30.11,West,278,0.0,0.0,78,0.00,,,0.00,Wunderground v.1.15,2013-07-28 15:56:00,
2013-07-28 11:57:00,62.8,56.2,30.11,West,278,0.0,0.0,79,0.00,,,0.00,Wunderground v.1.15,2013-07-28 15:57:00,
2013-07-28 11:58:00,70.2,54.2,30.09,WSW,238,1.0,1.0,57,0.00,,,0.00,Wunderground v.1.15,2013-07-28 15:58:00,
2013-07-28 11:59:00,62.8,56.2,30.11,West,278,0.0,0.0,79,0.00,,,0.00,Wunderground v.1.15,2013-07-28 15:59:00,
2013-07-28 12:00:00,62.7,56.1,30.11,West,278,0.0,0.0,79,0.00,,,0.00,Wunderground v.1.15,2013-07-28 16:00:00,
2013-07-28 12:01:00,62.7,56.1,30.11,West,278,0.0,0.0,79,0.00,,,0.00,Wunderground v.1.15,2013-07-28 16:01:00,
2013-07-28 12:02:00,70.6,56.5,30.09,South,175,1.0,1.0,61,0.00,,,0.00,Wunderground v.1.15,2013-07-28 16:02:00,
2013-07-28 12:03:00,62.7,56.1,30.10,West,278,0.0,0.0,79,0.00,,,0.00,Wunderground v.1.15,2013-07-28 16:03:00,
2013-07-28 12:04:00,62.6,56.0,30.11,West,278,0.0,0.0,79,0.00,,,0.00,Wunderground v.1.15,2013-07-28 16:04:00,
2013-07-28 12:05:00,62.6,56.0,30.11,West,278,0.0,0.0,79,0.00,,,0.00,Wunderground v.1.15,2013-07-28 16:05:00,
2013-07-28 12:06:00,62.5,56.2,30.10,West,278,0.0,0.0,80,0.00,,,0.00,Wunderground v.1.15,2013-07-28 16:06:00,
2013-07-28 12:07:00,62.5,56.2,30.11,West,278,0.0,0.0,80,0.00,,,0.00,Wunderground v.1.15,2013-07-28 16:07:00,
2013-07-28 12:08:00,71.1,55.6,30.08,West,275,0.0,0.0,58,0.00,,,0.00,Wunderground v.1.15,2013-07-28 16:08:00,
2013-07-28 12:10:00,62.4,56.5,30.11,West,278,0.0,0.0,81,0.00,,,0.00,Wunderground v.1.15,2013-07-28 16:10:00,
2013-07-28 12:11:00,62.4,56.1,30.10,West,278,0.0,0.0,80,0.00,,,0.00,Wunderground v.1.15,2013-07-28 16:11:00,
2013-07-28 12:13:00,71.3,53.8,30.08,WSW,251,1.0,2.0,54,0.00,,,0.00,Wunderground v.1.15,2013-07-28 16:13:00,
2013-07-28 12:14:00,62.3,56.4,30.11,West,278,0.0,0.0,81,0.00,,,0.00,Wunderground v.1.15,2013-07-28 16:14:00,
2013-07-28 12:15:00,62.2,56.0,30.11,West,278,0.0,0.0,80,0.00,,,0.00,Wunderground v.1.15,2013-07-28 16:15:00,
2013-07-28 12:16:00,62.2,56.0,30.11,West,278,0.0,0.0,80,0.00,,,0.00,Wunderground v.1.15,2013-07-28 16:16:00,
2013-07-28 12:17:00,62.2,56.3,30.11,West,278,0.0,0.0,81,0.00,,,0.00,Wunderground v.1.15,2013-07-28 16:17:00,
2013-07-28 12:18:00,62.2,56.3,30.10,West,278,0.0,0.0,81,0.00,,,0.00,Wunderground v.1.15,2013-07-28 16:18:00,
2013-07-28 12:19:00,62.2,56.3,30.11,West,278,0.0,0.0,81,0.00,,,0.00,Wunderground v.1.15,2013-07-28 16:19:00,
2013-07-28 12:20:00,62.1,56.2,30.10,West,278,0.0,0.0,81,0.00,,,0.00,Wunderground v.1.15,2013-07-28 16:20:00,
2013-07-28 12:21:00,62.1,56.2,30.11,West,278,0.0,0.0,81,0.00,,,0.00,Wunderground v.1.15,2013-07-28 16:21:00,
2013-07-28 12:22:00,62.0,56.4,30.11,West,278,0.0,0.0,82,0.00,,,0.00,Wunderground v.1.15,2013-07-28 16:22:00,
2013-07-28 12:23:00,62.0,56.4,30.11,West,278,0.0,0.0,82,0.00,,,0.00,Wunderground v.1.15,2013-07-28 16:23:00,
2013-07-28 12:24:00,62.0,56.4,30.11,West,278,0.0,0.0,82,0.00,,,0.00,Wunderground v.1.15,2013-07-28 16:24:00,
2013-07-28 12:25:00,62.0,56.4,30.11,West,278,0.0,0.0,82,0.00,,,0.00,Wunderground v.1.15,2013-07-28 16:25:00,
2013-07-28 12:26:00,70.8,55.3,30.08,West,277,1.0,4.0,58,0.00,,,0.00,Wunderground v.1.15,2013-07-28 16:26:00,
2013-07-28 12:27:00,61.9,56.7,30.11,West,278,0.0,0.0,83,0.00,,,0.00,Wunderground v.1.15,2013-07-28 16:27:00,
2013-07-28 12:28:00,61.9,56.7,30.11,West,278,0.0,0.0,83,0.00,,,0.00,Wunderground v.1.15,2013-07-28 16:28:00,
2013-07-28 12:29:00,61.9,56.7,30.11,West,278,0.0,0.0,83,0.00,,,0.00,Wunderground v.1.15,2013-07-28 16:29:00,
2013-07-28 12:30:00,61.8,56.2,30.11,West,278,0.0,0.0,82,0.00,,,0.00,Wunderground v.1.15,2013-07-28 16:30:00,
2013-07-28 12:31:00,61.8,56.2,30.11,West,278,0.0,0.0,82,0.00,,,0.00,Wunderground v.1.15,2013-07-28 16:31:00,
2013-07-28 12:32:00,61.8,56.2,30.11,West,278,0.0,0.0,82,0.00,,,0.00,Wunderground v.1.15,2013-07-28 16:32:00,
2013-07-28 12:33:00,61.7,56.1,30.11,West,278,0.0,0.0,82,0.00,,,0.00,Wunderground v.1.15,2013-07-28 16:33:00,
2013-07-28 12:34:00,61.6,56.0,30.11,West,278,0.0,0.0,82,0.00,,,0.00,Wunderground v.1.15,2013-07-28 16:34:00,
2013-07-28 12:35:00,71.3,54.8,30.08,WNW,289,1.0,3.0,56,0.00,,,0.00,Wunderground v.1.15,2013-07-28 16:35:00,
2013-07-28 12:36:00,61.6,56.4,30.11,West,278,0.0,0.0,83,0.00,,,0.00,Wunderground v.1.15,2013-07-28 16:36:00,
2013-07-28 12:37:00,61.5,56.3,30.11,West,278,0.0,0.0,83,0.00,,,0.00,Wunderground v.1.15,2013-07-28 16:37:00,
2013-07-28 12:38:00,61.5,56.0,30.11,West,278,0.0,0.0,82,0.00,,,0.00,Wunderground v.1.15,2013-07-28 16:38:00,
2013-07-28 12:39:00,61.5,56.0,30.10,West,278,0.0,0.0,82,0.00,,,0.00,Wunderground v.1.15,2013-07-28 16:39:00,
2013-07-28 12:40:00,61.4,55.9,30.10,West,278,0.0,0.0,82,0.00,,,0.00,Wunderground v.1.15,2013-07-28 16:40:00,
2013-07-28 12:41:00,61.4,55.9,30.10,West,278,0.0,0.0,82,0.00,,,0.00,Wunderground v.1.15,2013-07-28 16:41:00,
2013-07-28 12:42:00,61.4,55.9,30.11,West,278,0.0,0.0,82,0.00,,,0.00,Wunderground v.1.15,2013-07-28 16:42:00,
2013-07-28 12:43:00,71.3,52.2,30.08,North,360,1.0,3.0,51,0.00,,,0.00,Wunderground v.1.15,2013-07-28 16:43:00,
2013-07-28 12:44:00,71.2,51.6,30.08,North,360,1.0,3.0,50,0.00,,,0.00,Wunderground v.1.15,2013-07-28 16:44:00,
2013-07-28 12:45:00,61.3,56.1,30.11,West,278,0.0,0.0,83,0.00,,,0.00,Wunderground v.1.15,2013-07-28 16:45:00,
2013-07-28 12:46:00,61.3,56.1,30.10,West,278,0.0,0.0,83,0.00,,,0.00,Wunderground v.1.15,2013-07-28 16:46:00,
2013-07-28 12:47:00,61.3,56.1,30.10,West,278,0.0,0.0,83,0.00,,,0.00,Wunderground v.1.15,2013-07-28 16:47:00,
2013-07-28 12:48:00,71.9,53.8,30.08,NNW,347,1.0,1.0,53,0.00,,,0.00,Wunderground v.1.15,2013-07-28 16:48:00,
2013-07-28 12:49:00,61.3,56.4,30.11,West,278,0.0,0.0,84,0.00,,,0.00,Wunderground v.1.15,2013-07-28 16:49:00,
2013-07-28 12:50:00,72.1,54.0,30.08,NNE,32,1.0,1.0,53,0.00,,,0.00,Wunderground v.1.15,2013-07-28 16:50:00,
2013-07-28 12:51:00,61.3,56.4,30.11,West,278,0.0,0.0,84,0.00,,,0.00,Wunderground v.1.15,2013-07-28 16:51:00,
2013-07-28 12:52:00,61.2,56.7,30.11,West,278,0.0,0.0,85,0.00,,,0.00,Wunderground v.1.15,2013-07-28 16:52:00,
2013-07-28 12:53:00,61.2,56.7,30.11,West,278,0.0,0.0,85,0.00,,,0.00,Wunderground v.1.15,2013-07-28 16:53:00,
2013-07-28 12:54:00,72.3,55.7,30.08,NNE,32,0.0,1.0,56,0.00,,,0.00,Wunderground v.1.15,2013-07-28 16:54:00,
2013-07-28 12:55:00,72.5,54.9,30.08,NNE,32,0.0,1.0,54,0.00,,,0.00,Wunderground v.1.15,2013-07-28 16:55:00,
2013-07-28 12:56:00,61.2,56.3,30.11,West,278,0.0,0.0,84,0.00,,,0.00,Wunderground v.1.15,2013-07-28 16:56:00,
2013-07-28 12:57:00,61.1,56.2,30.11,West,278,0.0,0.0,84,0.00,,,0.00,Wunderground v.1.15,2013-07-28 16:57:00,
2013-07-28 12:58:00,61.1,56.2,30.11,West,278,0.0,0.0,84,0.00,,,0.00,Wunderground v.1.15,2013-07-28 16:58:00,
2013-07-28 12:59:00,61.1,56.2,30.11,West,278,0.0,0.0,84,0.00,,,0.00,Wunderground v.1.15,2013-07-28 16:59:00,
2013-07-28 13:00:00,73.2,54.0,30.08,South,179,0.0,1.0,51,0.00,,,0.00,Wunderground v.1.15,2013-07-28 17:00:00,
2013-07-28 13:01:00,61.0,56.5,30.11,West,278,0.0,0.0,85,0.00,,,0.00,Wunderground v.1.15,2013-07-28 17:01:00,
2013-07-28 13:02:00,61.0,56.5,30.11,West,278,0.0,0.0,85,0.00,,,0.00,Wunderground v.1.15,2013-07-28 17:02:00,
2013-07-28 13:03:00,60.9,56.4,30.11,West,278,0.0,0.0,85,0.00,,,0.00,Wunderground v.1.15,2013-07-28 17:03:00,
2013-07-28 13:04:00,60.9,56.4,30.11,West,278,0.0,0.0,85,0.00,,,0.00,Wunderground v.1.15,2013-07-28 17:04:00,
2013-07-28 13:05:00,72.9,52.6,30.08,East,97,1.0,2.0,49,0.00,,,0.00,Wunderground v.1.15,2013-07-28 17:05:00,
2013-07-28 13:06:00,60.8,56.3,30.11,West,278,0.0,0.0,85,0.00,,,0.00,Wunderground v.1.15,2013-07-28 17:06:00,
2013-07-28 13:07:00,60.8,56.3,30.11,West,278,0.0,0.0,85,0.00,,,0.00,Wunderground v.1.15,2013-07-28 17:07:00,
2013-07-28 13:08:00,60.8,56.3,30.11,West,278,0.0,0.0,85,0.00,,,0.00,Wunderground v.1.15,2013-07-28 17:08:00,
2013-07-28 13:09:00,72.5,53.9,30.07,ENE,66,1.0,1.0,52,0.00,,,0.00,Wunderground v.1.15,2013-07-28 17:09:00,
2013-07-28 13:10:00,60.7,56.2,30.11,West,278,0.0,0.0,85,0.00,,,0.00,Wunderground v.1.15,2013-07-28 17:10:00,
2013-07-28 13:11:00,72.5,53.9,30.07,North,10,1.0,2.0,52,0.00,,,0.00,Wunderground v.1.15,2013-07-28 17:11:00,
2013-07-28 13:12:00,60.6,56.1,30.11,West,278,0.0,0.0,85,0.00,,,0.00,Wunderground v.1.15,2013-07-28 17:12:00,
2013-07-28 13:13:00,60.5,56.0,30.11,West,278,0.0,0.0,85,0.00,,,0.00,Wunderground v.1.15,2013-07-28 17:13:00,
2013-07-28 13:14:00,60.5,56.0,30.11,West,278,0.0,0.0,85,0.00,,,0.00,Wunderground v.1.15,2013-07-28 17:14:00,
2013-07-28 13:15:00,60.5,56.0,30.11,West,278,0.0,0.0,85,0.00,,,0.00,Wunderground v.1.15,2013-07-28 17:15:00,
2013-07-28 13:16:00,72.2,54.1,30.07,WNW,303,1.0,2.0,53,0.00,,,0.00,Wunderground v.1.15,2013-07-28 17:16:00,
2013-07-28 13:17:00,60.5,56.0,30.11,West,278,0.0,0.0,85,0.00,,,0.00,Wunderground v.1.15,2013-07-28 17:17:00,
2013-07-28 13:18:00,60.4,55.9,30.11,West,278,0.0,0.0,85,0.00,,,0.00,Wunderground v.1.15,2013-07-28 17:18:00,
2013-07-28 13:19:00,60.4,56.2,30.11,West,278,0.0,0.0,86,0.00,,,0.00,Wunderground v.1.15,2013-07-28 17:19:00,
2013-07-28 13:20:00,60.4,56.2,30.11,West,278,0.0,0.0,86,0.00,,,0.00,Wunderground v.1.15,2013-07-28 17:20:00,
2013-07-28 13:21:00,72.4,53.2,30.08,WNW,295,1.0,1.0,51,0.00,,,0.00,Wunderground v.1.15,2013-07-28 17:21:00,
2013-07-28 13:22:00,60.3,56.1,30.11,West,278,0.0,0.0,86,0.00,,,0.00,Wunderground v.1.15,2013-07-28 17:22:00,
2013-07-28 13:23:00,60.3,56.1,30.10,West,278,0.0,0.0,86,0.00,,,0.00,Wunderground v.1.15,2013-07-28 17:23:00,
2013-07-28 13:24:00,60.3,56.1,30.11,West,278,0.0,0.0,86,0.00,,,0.00,Wunderground v.1.15,2013-07-28 17:24:00,
2013-07-28 13:25:00,60.3,56.4,30.11,West,278,0.0,0.0,87,0.00,,,0.00,Wunderground v.1.15,2013-07-28 17:25:00,
2013-07-28 13:26:00,60.2,56.3,30.11,West,278,0.0,0.0,87,0.00,,,0.00,Wunderground v.1.15,2013-07-28 17:26:00,
2013-07-28 13:27:00,60.2,56.0,30.11,West,278,0.0,0.0,86,0.00,,,0.00,Wunderground v.1.15,2013-07-28 17:27:00,
2013-07-28 13:28:00,73.1,54.9,30.07,SE,141,0.0,1.0,53,0.00,,,0.00,Wunderground v.1.15,2013-07-28 17:28:00,
2013-07-28 13:29:00,60.1,55.9,30.11,West,278,0.0,0.0,86,0.00,,,0.00,Wunderground v.1.15,2013-07-28 17:29:00,
2013-07-28 13:30:00,73.3,54.1,30.07,NE,43,0.0,1.0,51,0.00,,,0.00,Wunderground v.1.15,2013-07-28 17:30:00,
2013-07-28 13:31:00,60.0,56.1,30.11,West,278,0.0,0.0,87,0.00,,,0.00,Wunderground v.1.15,2013-07-28 17:31:00,
2013-07-28 13:32:00,59.9,56.0,30.11,West,278,0.0,0.0,87,0.00,,,0.00,Wunderground v.1.15,2013-07-28 17:32:00,
2013-07-28 13:33:00,59.9,56.0,30.11,West,278,0.0,0.0,87,0.00,,,0.00,Wunderground v.1.15,2013-07-28 17:33:00,
2013-07-28 13:34:00,59.8,55.9,30.11,West,278,0.0,0.0,87,0.00,,,0.00,Wunderground v.1.15,2013-07-28 17:34:00,
2013-07-28 13:35:00,73.5,53.7,30.07,SSW,213,0.0,1.0,50,0.00,,,0.00,Wunderground v.1.15,2013-07-28 17:35:00,
2013-07-28 13:36:00,73.6,53.8,30.07,SSW,213,0.0,1.0,50,0.00,,,0.00,Wunderground v.1.15,2013-07-28 17:36:00,
2013-07-28 13:37:00,59.6,55.7,30.11,West,278,0.0,0.0,87,0.00,,,0.00,Wunderground v.1.15,2013-07-28 17:37:00,
2013-07-28 13:38:00,59.6,55.7,30.11,West,278,0.0,0.0,87,0.00,,,0.00,Wunderground v.1.15,2013-07-28 17:38:00,
2013-07-28 13:39:00,59.5,55.6,30.11,West,278,0.0,0.0,87,0.00,,,0.00,Wunderground v.1.15,2013-07-28 17:39:00,
2013-07-28 13:40:00,59.4,55.2,30.11,West,278,0.0,0.0,86,0.00,,,0.00,Wunderground v.1.15,2013-07-28 17:40:00,
2013-07-28 13:41:00,59.4,55.2,30.11,West,278,0.0,0.0,86,0.00,,,0.00,Wunderground v.1.15,2013-07-28 17:41:00,
2013-07-28 13:42:00,59.3,55.1,30.11,West,278,0.0,0.0,86,0.00,,,0.00,Wunderground v.1.15,2013-07-28 17:42:00,
2013-07-28 13:43:00,73.4,54.2,30.07,NW,312,0.0,2.0,51,0.00,,,0.00,Wunderground v.1.15,2013-07-28 17:43:00,
2013-07-28 13:44:00,73.3,53.5,30.07,NW,312,0.0,2.0,50,0.00,,,0.00,Wunderground v.1.15,2013-07-28 17:44:00,
2013-07-28 13:45:00,59.3,55.4,30.11,West,278,0.0,0.0,87,0.00,,,0.00,Wunderground v.1.15,2013-07-28 17:45:00,
2013-07-28 13:46:00,59.3,55.4,30.11,West,278,0.0,0.0,87,0.00,,,0.00,Wunderground v.1.15,2013-07-28 17:46:00,
2013-07-28 13:47:00,73.4,55.7,30.07,SSW,202,0.0,2.0,54,0.00,,,0.00,Wunderground v.1.15,2013-07-28 17:47:00,
2013-07-28 13:48:00,59.2,55.6,30.11,West,278,0.0,0.0,88,0.00,,,0.00,Wunderground v.1.15,2013-07-28 17:48:00,
2013-07-28 13:49:00,59.2,55.6,30.11,West,278,0.0,0.0,88,0.00,,,0.00,Wunderground v.1.15,2013-07-28 17:49:00,
2013-07-28 13:50:00,59.2,55.6,30.11,West,278,0.0,0.0,88,0.00,,,0.00,Wunderground v.1.15,2013-07-28 17:50:00,
2013-07-28 13:51:00,59.2,55.6,30.11,West,278,0.0,0.0,88,0.00,,,0.00,Wunderground v.1.15,2013-07-28 17:51:00,
2013-07-28 13:52:00,73.9,55.2,30.07,SSW,199,0.0,1.0,52,0.00,,,0.00,Wunderground v.1.15,2013-07-28 17:52:00,
2013-07-28 13:53:00,74.1,54.8,30.07,SSW,199,0.0,1.0,51,0.00,,,0.00,Wunderground v.1.15,2013-07-28 17:53:00,
2013-07-28 13:54:00,59.2,55.6,30.11,West,278,0.0,0.0,88,0.00,,,0.00,Wunderground v.1.15,2013-07-28 17:54:00,
2013-07-28 13:55:00,59.2,55.6,30.11,West,278,0.0,0.0,88,0.00,,,0.00,Wunderground v.1.15,2013-07-28 17:55:00,
2013-07-28 13:56:00,59.1,55.5,30.11,West,278,0.0,0.0,88,0.00,,,0.00,Wunderground v.1.15,2013-07-28 17:56:00,
2013-07-28 13:57:00,59.1,55.5,30.11,West,278,0.0,0.0,88,0.00,,,0.00,Wunderground v.1.15,2013-07-28 17:57:00,
2013-07-28 13:58:00,74.8,54.9,30.07,SSW,198,0.0,0.0,50,0.00,,,0.00,Wunderground v.1.15,2013-07-28 17:58:00,
2013-07-28 13:59:00,59.0,55.4,30.11,West,278,0.0,0.0,88,0.00,,,0.00,Wunderground v.1.15,2013-07-28 17:59:00,
2013-07-28 14:00:00,59.0,55.8,30.11,West,278,0.0,0.0,89,0.00,,,0.00,Wunderground v.1.15,2013-07-28 18:00:00,
2013-07-28 14:01:00,58.9,55.7,30.11,West,278,0.0,0.0,89,0.00,,,0.00,Wunderground v.1.15,2013-07-28 18:01:00,
2013-07-28 14:02:00,58.9,55.4,30.11,West,278,0.0,0.0,88,0.00,,,0.00,Wunderground v.1.15,2013-07-28 18:02:00,
2013-07-28 14:03:00,58.9,55.4,30.11,West,278,0.0,0.0,88,0.00,,,0.00,Wunderground v.1.15,2013-07-28 18:03:00,
2013-07-28 14:04:00,58.8,55.3,30.11,West,278,0.0,0.0,88,0.00,,,0.00,Wunderground v.1.15,2013-07-28 18:04:00,
2013-07-28 14:05:00,58.8,55.6,30.11,West,278,0.0,0.0,89,0.00,,,0.00,Wunderground v.1.15,2013-07-28 18:05:00,
2013-07-28 14:06:00,58.8,55.6,30.11,West,278,0.0,0.0,89,0.00,,,0.00,Wunderground v.1.15,2013-07-28 18:06:00,
2013-07-28 14:07:00,74.6,53.6,30.07,North,9,0.0,1.0,48,0.00,,,0.00,Wunderground v.1.15,2013-07-28 18:07:00,
2013-07-28 14:08:00,58.7,55.5,30.11,West,278,0.0,0.0,89,0.00,,,0.00,Wunderground v.1.15,2013-07-28 18:08:00,
2013-07-28 14:09:00,58.7,55.5,30.11,West,278,0.0,0.0,89,0.00,,,0.00,Wunderground v.1.15,2013-07-28 18:09:00,
2013-07-28 14:10:00,58.7,55.5,30.11,West,278,0.0,0.0,89,0.00,,,0.00,Wunderground v.1.15,2013-07-28 18:10:00,
2013-07-28 14:11:00,58.6,55.4,30.11,West,278,0.0,0.0,89,0.00,,,0.00,Wunderground v.1.15,2013-07-28 18:11:00,
2013-07-28 14:12:00,58.6,55.4,30.11,West,278,0.0,0.0,89,0.00,,,0.00,Wunderground v.1.15,2013-07-28 18:12:00,
2013-07-28 14:13:00,58.6,55.4,30.11,West,278,0.0,0.0,89,0.00,,,0.00,Wunderground v.1.15,2013-07-28 18:13:00,
2013-07-28 14:14:00,73.9,55.2,30.07,SSW,204,1.0,2.0,52,0.00,,,0.00,Wunderground v.1.15,2013-07-28 18:14:00,
2013-07-28 14:15:00,58.5,55.3,30.11,West,278,0.0,0.0,89,0.00,,,0.00,Wunderground v.1.15,2013-07-28 18:15:00,
2013-07-28 14:16:00,58.5,55.3,30.11,West,278,0.0,0.0,89,0.00,,,0.00,Wunderground v.1.15,2013-07-28 18:16:00,
2013-07-28 14:17:00,58.5,55.3,30.11,West,278,0.0,0.0,89,0.00,,,0.00,Wunderground v.1.15,2013-07-28 18:17:00,
2013-07-28 14:18:00,58.4,55.2,30.11,West,278,0.0,0.0,89,0.00,,,0.00,Wunderground v.1.15,2013-07-28 18:18:00,
2013-07-28 14:19:00,73.5,54.3,30.07,NNE,30,1.0,1.0,51,0.00,,,0.00,Wunderground v.1.15,2013-07-28 18:19:00,
2013-07-28 14:20:00,58.4,55.5,30.11,West,278,0.0,0.0,90,0.00,,,0.00,Wunderground v.1.15,2013-07-28 18:20:00,
2013-07-28 14:21:00,58.4,55.5,30.11,West,278,0.0,0.0,90,0.00,,,0.00,Wunderground v.1.15,2013-07-28 18:21:00,
2013-07-28 14:22:00,73.6,54.4,30.07,West,269,1.0,1.0,51,0.00,,,0.00,Wunderground v.1.15,2013-07-28 18:22:00,
2013-07-28 14:23:00,58.3,55.4,30.11,West,278,0.0,0.0,90,0.00,,,0.00,Wunderground v.1.15,2013-07-28 18:23:00,
2013-07-28 14:24:00,58.3,55.4,30.11,West,278,0.0,0.0,90,0.00,,,0.00,Wunderground v.1.15,2013-07-28 18:24:00,
2013-07-28 14:25:00,58.3,55.4,30.11,West,278,0.0,0.0,90,0.00,,,0.00,Wunderground v.1.15,2013-07-28 18:25:00,
2013-07-28 14:26:00,58.2,55.3,30.11,West,278,0.0,0.0,90,0.00,,,0.00,Wunderground v.1.15,2013-07-28 18:26:00,
2013-07-28 14:27:00,58.2,55.3,30.11,West,278,0.0,0.0,90,0.00,,,0.00,Wunderground v.1.15,2013-07-28 18:27:00,
2013-07-28 14:28:00,58.2,55.3,30.11,West,278,0.0,0.0,90,0.00,,,0.00,Wunderground v.1.15,2013-07-28 18:28:00,
2013-07-28 14:29:00,58.1,55.2,30.11,West,278,0.0,0.0,90,0.00,,,0.00,Wunderground v.1.15,2013-07-28 18:29:00,
2013-07-28 14:30:00,58.1,55.2,30.11,West,278,0.0,0.0,90,0.00,,,0.00,Wunderground v.1.15,2013-07-28 18:30:00,
2013-07-28 14:31:00,58.1,55.2,30.11,West,278,0.0,0.0,90,0.00,,,0.00,Wunderground v.1.15,2013-07-28 18:31:00,
2013-07-28 14:32:00,74.6,56.3,30.06,North,5,0.0,1.0,53,0.00,,,0.00,Wunderground v.1.15,2013-07-28 18:32:00,
2013-07-28 14:33:00,74.6,54.7,30.06,NNE,22,1.0,1.0,50,0.00,,,0.00,Wunderground v.1.15,2013-07-28 18:33:00,
2013-07-28 14:35:00,74.6,54.7,30.06,SW,236,1.0,1.0,50,0.00,,,0.00,Wunderground v.1.15,2013-07-28 18:35:00,
2013-07-28 14:36:00,58.0,55.1,30.11,West,278,0.0,0.0,90,0.00,,,0.00,Wunderground v.1.15,2013-07-28 18:36:00,
2013-07-28 14:37:00,58.0,55.4,30.11,West,278,0.0,0.0,91,0.00,,,0.00,Wunderground v.1.15,2013-07-28 18:37:00,
2013-07-28 14:38:00,74.9,55.6,30.06,SW,236,0.0,0.0,51,0.00,,,0.00,Wunderground v.1.15,2013-07-28 18:38:00,
2013-07-28 14:39:00,75.0,56.7,30.06,WNW,290,0.0,3.0,53,0.00,,,0.00,Wunderground v.1.15,2013-07-28 18:39:00,
2013-07-28 14:40:00,57.9,55.3,30.11,West,278,0.0,0.0,91,0.00,,,0.00,Wunderground v.1.15,2013-07-28 18:40:00,
2013-07-28 14:41:00,57.9,55.0,30.11,West,278,0.0,0.0,90,0.00,,,0.00,Wunderground v.1.15,2013-07-28 18:41:00,
2013-07-28 14:42:00,57.9,55.0,30.11,West,278,0.0,0.0,90,0.00,,,0.00,Wunderground v.1.15,2013-07-28 18:42:00,
2013-07-28 14:43:00,74.8,54.4,30.06,WNW,296,1.0,3.0,49,0.00,,,0.00,Wunderground v.1.15,2013-07-28 18:43:00,
2013-07-28 14:44:00,57.8,55.2,30.11,West,278,0.0,0.0,91,0.00,,,0.00,Wunderground v.1.15,2013-07-28 18:44:00,
2013-07-28 14:45:00,57.8,55.2,30.11,West,278,0.0,0.0,91,0.00,,,0.00,Wunderground v.1.15,2013-07-28 18:45:00,
2013-07-28 14:46:00,74.6,55.8,30.06,WNW,296,1.0,3.0,52,0.00,,,0.00,Wunderground v.1.15,2013-07-28 18:46:00,
2013-07-28 14:48:00,57.9,55.3,30.11,West,278,0.0,0.0,91,0.00,,,0.00,Wunderground v.1.15,2013-07-28 18:48:00,
2013-07-28 14:50:00,74.3,54.5,30.06,WNW,295,1.0,1.0,50,0.00,,,0.00,Wunderground v.1.15,2013-07-28 18:50:00,
2013-07-28 14:51:00,57.8,54.9,30.11,West,278,0.0,0.0,90,0.00,,,0.00,Wunderground v.1.15,2013-07-28 18:51:00,
2013-07-28 14:52:00,57.8,54.9,30.11,West,278,0.0,0.0,90,0.00,,,0.00,Wunderground v.1.15,2013-07-28 18:52:00,
2013-07-28 14:53:00,57.8,55.2,30.11,West,278,0.0,0.0,91,0.00,,,0.00,Wunderground v.1.15,2013-07-28 18:53:00,
2013-07-28 14:54:00,57.8,55.2,30.11,West,278,0.0,0.0,91,0.00,,,0.00,Wunderground v.1.15,2013-07-28 18:54:00,
2013-07-28 14:55:00,57.8,55.2,30.11,West,278,0.0,0.0,91,0.00,,,0.00,Wunderground v.1.15,2013-07-28 18:55:00,
2013-07-28 14:56:00,74.0,54.7,30.06,SSE,157,0.0,1.0,51,0.00,,,0.00,Wunderground v.1.15,2013-07-28 18:56:00,
2013-07-28 14:57:00,57.8,55.2,30.11,West,278,0.0,0.0,91,0.00,,,0.00,Wunderground v.1.15,2013-07-28 18:57:00,
2013-07-28 14:59:00,57.8,55.2,30.11,West,278,0.0,0.0,91,0.00,,,0.00,Wunderground v.1.15,2013-07-28 18:59:00,
2013-07-28 15:00:00,74.3,53.9,30.06,NW,323,0.0,2.0,49,0.00,,,0.00,Wunderground v.1.15,2013-07-28 19:00:00,
2013-07-28 15:03:00,57.8,55.2,30.11,West,278,0.0,0.0,91,0.00,,,0.00,Wunderground v.1.15,2013-07-28 19:03:00,
2013-07-28 15:05:00,74.8,56.5,30.06,WNW,289,1.0,2.0,53,0.00,,,0.00,Wunderground v.1.15,2013-07-28 19:05:00,
2013-07-28 15:07:00,75.0,56.2,30.06,South,169,1.0,3.0,52,0.00,,,0.00,Wunderground v.1.15,2013-07-28 19:07:00,
2013-07-28 15:11:00,74.9,55.0,30.06,NNE,24,1.0,2.0,50,0.00,,,0.00,Wunderground v.1.15,2013-07-28 19:11:00,
2013-07-28 15:18:00,74.5,54.1,30.06,North,360,1.0,2.0,49,0.00,,,0.00,Wunderground v.1.15,2013-07-28 19:18:00,
2013-07-28 15:20:00,74.2,52.7,30.06,NNE,19,1.0,3.0,47,0.00,,,0.00,Wunderground v.1.15,2013-07-28 19:20:00,
2013-07-28 15:25:00,74.6,55.8,30.06,SSW,211,1.0,3.0,52,0.00,,,0.00,Wunderground v.1.15,2013-07-28 19:25:00,
2013-07-28 15:26:00,74.6,55.8,30.05,NNE,17,1.0,3.0,52,0.00,,,0.00,Wunderground v.1.15,2013-07-28 19:26:00,
2013-07-28 15:35:00,74.8,54.4,30.05,NNW,330,1.0,5.0,49,0.00,,,0.00,Wunderground v.1.15,2013-07-28 19:35:00,
2013-07-28 15:39:00,74.7,55.4,30.05,West,259,0.0,1.0,51,0.00,,,0.00,Wunderground v.1.15,2013-07-28 19:39:00,
2013-07-28 15:48:00,56.7,54.4,30.12,West,278,0.0,0.0,92,0.00,,,0.00,Wunderground v.1.15,2013-07-28 19:48:00,
2013-07-28 15:49:00,56.7,54.4,30.12,West,278,0.0,0.0,92,0.00,,,0.00,Wunderground v.1.15,2013-07-28 19:49:00,
2013-07-28 15:54:00,75.3,55.9,30.05,SW,224,0.0,1.0,51,0.00,,,0.00,Wunderground v.1.15,2013-07-28 19:54:00,
2013-07-28 15:55:00,56.5,54.2,30.11,West,278,0.0,0.0,92,0.00,,,0.00,Wunderground v.1.15,2013-07-28 19:55:00,
2013-07-28 15:56:00,75.5,58.2,30.05,SW,224,0.0,1.0,55,0.00,,,0.00,Wunderground v.1.15,2013-07-28 19:56:00,
2013-07-28 15:58:00,75.5,55.6,30.05,South,189,1.0,1.0,50,0.00,,,0.00,Wunderground v.1.15,2013-07-28 19:58:00,
2013-07-28 16:02:00,74.9,58.6,30.05,NW,307,1.0,6.0,57,0.00,,,0.00,Wunderground v.1.15,2013-07-28 20:02:00,
2013-07-28 16:04:00,74.6,58.8,30.05,South,169,1.0,6.0,58,0.00,,,0.00,Wunderground v.1.15,2013-07-28 20:04:00,
2013-07-28 16:07:00,74.3,58.1,30.05,South,169,1.0,6.0,57,0.00,,,0.00,Wunderground v.1.15,2013-07-28 20:07:00,
2013-07-28 16:09:00,74.3,58.1,30.05,West,267,1.0,1.0,57,0.00,,,0.00,Wunderground v.1.15,2013-07-28 20:09:00,
2013-07-28 16:10:00,56.4,54.1,30.12,West,278,0.0,0.0,92,0.00,,,0.00,Wunderground v.1.15,2013-07-28 20:10:00,
2013-07-28 16:12:00,74.6,57.4,30.05,West,277,1.0,3.0,55,0.00,,,0.00,Wunderground v.1.15,2013-07-28 20:12:00,
2013-07-28 16:13:00,74.7,58.0,30.05,NW,312,1.0,3.0,56,0.00,,,0.00,Wunderground v.1.15,2013-07-28 20:13:00,
2013-07-28 16:17:00,74.7,58.0,30.05,WSW,241,1.0,3.0,56,0.00,,,0.00,Wunderground v.1.15,2013-07-28 20:17:00,
2013-07-28 16:19:00,56.6,54.3,30.12,West,278,0.0,0.0,92,0.00,,,0.00,Wunderground v.1.15,2013-07-28 20:19:00,
2013-07-28 16:21:00,56.6,54.3,30.12,West,278,0.0,0.0,92,0.00,,,0.00,Wunderground v.1.15,2013-07-28 20:21:00,
2013-07-28 16:23:00,75.4,57.6,30.05,SSE,159,0.0,2.0,54,0.00,,,0.00,Wunderground v.1.15,2013-07-28 20:23:00,
2013-07-28 16:24:00,56.5,54.2,30.12,West,278,0.0,0.0,92,0.00,,,0.00,Wunderground v.1.15,2013-07-28 20:24:00,
2013-07-28 16:27:00,75.5,58.2,30.05,SSW,213,0.0,2.0,55,0.00,,,0.00,Wunderground v.1.15,2013-07-28 20:27:00,
2013-07-28 16:28:00,56.6,54.3,30.12,West,278,0.0,0.0,92,0.00,,,0.00,Wunderground v.1.15,2013-07-28 20:28:00,
2013-07-28 16:29:00,56.6,54.3,30.12,West,278,0.0,0.0,92,0.00,,,0.00,Wunderground v.1.15,2013-07-28 20:29:00,
2013-07-28 16:30:00,56.6,54.3,30.12,West,278,0.0,0.0,92,0.00,,,0.00,Wunderground v.1.15,2013-07-28 20:30:00,
2013-07-28 16:34:00,56.6,54.3,30.12,West,278,0.0,0.0,92,0.00,,,0.00,Wunderground v.1.15,2013-07-28 20:34:00,
2013-07-28 16:35:00,56.6,54.3,30.12,West,278,0.0,0.0,92,0.00,,,0.00,Wunderground v.1.15,2013-07-28 20:35:00,
2013-07-28 16:36:00,76.0,57.6,30.05,SSW,197,1.0,3.0,53,0.00,,,0.00,Wunderground v.1.15,2013-07-28 20:36:00,
2013-07-28 16:40:00,56.5,54.2,30.12,West,278,0.0,0.0,92,0.00,,,0.00,Wunderground v.1.15,2013-07-28 20:40:00,
2013-07-28 16:41:00,56.5,54.2,30.12,West,278,0.0,0.0,92,0.00,,,0.00,Wunderground v.1.15,2013-07-28 20:41:00,
2013-07-28 16:42:00,56.4,54.1,30.12,West,278,0.0,0.0,92,0.00,,,0.00,Wunderground v.1.15,2013-07-28 20:42:00,
2013-07-28 16:43:00,56.4,54.1,30.12,West,278,0.0,0.0,92,0.00,,,0.00,Wunderground v.1.15,2013-07-28 20:43:00,
2013-07-28 16:44:00,56.4,54.1,30.12,West,278,0.0,0.0,92,0.00,,,0.00,Wunderground v.1.15,2013-07-28 20:44:00,
2013-07-28 16:45:00,75.6,58.3,30.05,West,281,0.0,2.0,55,0.00,,,0.00,Wunderground v.1.15,2013-07-28 20:45:00,
2013-07-28 16:46:00,56.3,54.0,30.12,West,278,0.0,0.0,92,0.00,,,0.00,Wunderground v.1.15,2013-07-28 20:46:00,
2013-07-28 16:48:00,56.3,54.0,30.12,West,278,0.0,0.0,92,0.00,,,0.00,Wunderground v.1.15,2013-07-28 20:48:00,
2013-07-28 16:49:00,75.1,57.3,30.05,SW,223,0.0,0.0,54,0.00,,,0.00,Wunderground v.1.15,2013-07-28 20:49:00,
2013-07-28 16:52:00,56.0,53.7,30.12,West,278,0.0,0.0,92,0.00,,,0.00,Wunderground v.1.15,2013-07-28 20:52:00,
2013-07-28 16:53:00,56.0,53.7,30.12,West,278,0.0,0.0,92,0.00,,,0.00,Wunderground v.1.15,2013-07-28 20:53:00,
2013-07-28 16:54:00,74.6,56.9,30.05,NW,322,0.0,1.0,54,0.00,,,0.00,Wunderground v.1.15,2013-07-28 20:54:00,
2013-07-28 16:57:00,55.9,53.6,30.12,West,278,0.0,0.0,92,0.00,,,0.00,Wunderground v.1.15,2013-07-28 20:57:00,
2013-07-28 16:58:00,75.1,57.8,30.05,SW,226,0.0,1.0,55,0.00,,,0.00,Wunderground v.1.15,2013-07-28 20:58:00,
2013-07-28 16:59:00,55.8,53.5,30.12,West,278,0.0,0.0,92,0.00,,,0.00,Wunderground v.1.15,2013-07-28 20:59:00,
2013-07-28 17:03:00,55.7,53.7,30.12,West,278,0.0,0.0,93,0.00,,,0.00,Wunderground v.1.15,2013-07-28 21:03:00,
2013-07-28 17:05:00,75.7,56.3,30.05,SW,221,1.0,5.0,51,0.00,,,0.00,Wunderground v.1.15,2013-07-28 21:05:00,
2013-07-28 17:07:00,75.7,57.4,30.05,South,175,1.0,5.0,53,0.00,,,0.00,Wunderground v.1.15,2013-07-28 21:07:00,
2013-07-28 17:09:00,55.7,53.7,30.12,West,278,0.0,0.0,93,0.00,,,0.00,Wunderground v.1.15,2013-07-28 21:09:00,
2013-07-28 17:10:00,55.7,53.7,30.12,West,278,0.0,0.0,93,0.00,,,0.00,Wunderground v.1.15,2013-07-28 21:10:00,
2013-07-28 17:11:00,75.5,58.7,30.05,South,186,1.0,1.0,56,0.00,,,0.00,Wunderground v.1.15,2013-07-28 21:11:00,
2013-07-28 17:17:00,55.7,53.7,30.12,West,278,0.0,0.0,93,0.00,,,0.00,Wunderground v.1.15,2013-07-28 21:17:00,
2013-07-28 17:20:00,55.6,53.6,30.12,West,278,0.0,0.0,93,0.00,,,0.00,Wunderground v.1.15,2013-07-28 21:20:00,
2013-07-28 17:21:00,55.6,53.6,30.12,West,278,0.0,0.0,93,0.00,,,0.00,Wunderground v.1.15,2013-07-28 21:21:00,
2013-07-28 17:22:00,74.2,55.4,30.05,West,279,1.0,1.0,52,0.00,,,0.00,Wunderground v.1.15,2013-07-28 21:22:00,
2013-07-28 17:26:00,55.5,53.5,30.12,West,278,0.0,0.0,93,0.00,,,0.00,Wunderground v.1.15,2013-07-28 21:26:00,
2013-07-28 17:27:00,74.4,57.7,30.05,NW,321,0.0,1.0,56,0.00,,,0.00,Wunderground v.1.15,2013-07-28 21:27:00,
2013-07-28 17:30:00,55.4,53.4,30.12,West,278,0.0,0.0,93,0.00,,,0.00,Wunderground v.1.15,2013-07-28 21:30:00,
2013-07-28 17:33:00,74.0,56.3,30.05,West,274,0.0,2.0,54,0.00,,,0.00,Wunderground v.1.15,2013-07-28 21:33:00,
2013-07-28 17:34:00,73.9,56.2,30.05,WNW,286,0.0,3.0,54,0.00,,,0.00,Wunderground v.1.15,2013-07-28 21:34:00,
2013-07-28 17:40:00,73.5,56.8,30.05,NW,311,1.0,6.0,56,0.00,,,0.00,Wunderground v.1.15,2013-07-28 21:40:00,
2013-07-28 17:42:00,55.3,53.3,30.13,West,278,0.0,0.0,93,0.00,,,0.00,Wunderground v.1.15,2013-07-28 21:42:00,
2013-07-28 17:43:00,55.3,53.3,30.13,West,278,0.0,0.0,93,0.00,,,0.00,Wunderground v.1.15,2013-07-28 21:43:00,
2013-07-28 17:45:00,73.2,54.5,30.05,West,267,2.0,6.0,52,0.00,,,0.00,Wunderground v.1.15,2013-07-28 21:45:00,
2013-07-28 17:47:00,73.2,54.5,30.05,West,267,1.0,6.0,52,0.00,,,0.00,Wunderground v.1.15,2013-07-28 21:47:00,
2013-07-28 17:52:00,55.3,53.3,30.13,West,278,0.0,0.0,93,0.00,,,0.00,Wunderground v.1.15,2013-07-28 21:52:00,
2013-07-28 17:53:00,72.6,56.0,30.05,West,267,0.0,1.0,56,0.00,,,0.00,Wunderground v.1.15,2013-07-28 21:53:00,
2013-07-28 17:55:00,55.2,53.2,30.13,West,278,0.0,0.0,93,0.00,,,0.00,Wunderground v.1.15,2013-07-28 21:55:00,
2013-07-28 17:57:00,55.2,53.2,30.13,West,278,0.0,0.0,93,0.00,,,0.00,Wunderground v.1.15,2013-07-28 21:57:00,
2013-07-28 17:58:00,55.2,53.2,30.13,West,278,0.0,0.0,93,0.00,,,0.00,Wunderground v.1.15,2013-07-28 21:58:00,
2013-07-28 17:59:00,55.2,53.2,30.13,West,278,0.0,0.0,93,0.00,,,0.00,Wunderground v.1.15,2013-07-28 21:59:00,
2013-07-28 18:00:00,55.1,53.1,30.13,West,278,0.0,0.0,93,0.00,,,0.00,Wunderground v.1.15,2013-07-28 22:00:00,
2013-07-28 18:03:00,72.3,55.2,30.05,WNW,300,1.0,1.0,55,0.00,,,0.00,Wunderground v.1.15,2013-07-28 22:03:00,
2013-07-28 18:06:00,72.0,54.9,30.05,North,360,1.0,2.0,55,0.00,,,0.00,Wunderground v.1.15,2013-07-28 22:06:00,
2013-07-28 18:08:00,72.0,55.4,30.05,North,360,0.0,0.0,56,0.00,,,0.00,Wunderground v.1.15,2013-07-28 22:08:00,
2013-07-28 18:13:00,72.2,56.1,30.05,NW,304,0.0,1.0,57,0.00,,,0.00,Wunderground v.1.15,2013-07-28 22:13:00,
2013-07-28 18:14:00,72.2,56.1,30.06,West,277,0.0,1.0,57,0.00,,,0.00,Wunderground v.1.15,2013-07-28 22:14:00,
2013-07-28 18:16:00,72.3,55.7,30.06,WNW,301,0.0,1.0,56,0.00,,,0.00,Wunderground v.1.15,2013-07-28 22:16:00,
2013-07-28 18:17:00,55.3,53.6,30.13,West,278,0.0,0.0,94,0.00,,,0.00,Wunderground v.1.15,2013-07-28 22:17:00,
2013-07-28 18:19:00,55.2,53.5,30.13,West,278,0.0,0.0,94,0.00,,,0.00,Wunderground v.1.15,2013-07-28 22:19:00,
2013-07-28 18:20:00,72.2,55.6,30.05,North,355,1.0,2.0,56,0.00,,,0.00,Wunderground v.1.15,2013-07-28 22:20:00,
2013-07-28 18:23:00,72.1,55.0,30.06,SSW,211,1.0,2.0,55,0.00,,,0.00,Wunderground v.1.15,2013-07-28 22:23:00,
2013-07-28 18:25:00,55.2,53.5,30.13,West,278,0.0,0.0,94,0.00,,,0.00,Wunderground v.1.15,2013-07-28 22:25:00,
2013-07-28 18:26:00,72.1,56.0,30.06,West,281,0.0,2.0,57,0.00,,,0.00,Wunderground v.1.15,2013-07-28 22:26:00,
2013-07-28 18:27:00,72.1,55.5,30.06,West,281,0.0,2.0,56,0.00,,,0.00,Wunderground v.1.15,2013-07-28 22:27:00,
2013-07-28 18:29:00,72.2,55.6,30.05,West,275,0.0,0.0,56,0.00,,,0.00,Wunderground v.1.15,2013-07-28 22:29:00,
2013-07-28 18:32:00,72.3,56.2,30.05,ENE,72,0.0,1.0,57,0.00,,,0.00,Wunderground v.1.15,2013-07-28 22:32:00,
2013-07-28 18:33:00,72.3,56.7,30.06,ENE,72,0.0,1.0,58,0.00,,,0.00,Wunderground v.1.15,2013-07-28 22:33:00,
2013-07-28 18:34:00,72.3,56.2,30.06,ENE,60,0.0,1.0,57,0.00,,,0.00,Wunderground v.1.15,2013-07-28 22:34:00,
2013-07-28 18:40:00,71.9,55.8,30.06,SSE,149,0.0,0.0,57,0.00,,,0.00,Wunderground v.1.15,2013-07-28 22:40:00,
2013-07-28 18:41:00,71.8,55.7,30.06,SSE,149,0.0,0.0,57,0.00,,,0.00,Wunderground v.1.15,2013-07-28 22:41:00,
2013-07-28 18:45:00,71.7,56.1,30.06,SSE,149,0.0,0.0,58,0.00,,,0.00,Wunderground v.1.15,2013-07-28 22:45:00,
2013-07-28 18:46:00,71.7,57.5,30.06,West,276,0.0,0.0,61,0.00,,,0.00,Wunderground v.1.15,2013-07-28 22:46:00,
2013-07-28 18:47:00,71.8,57.6,30.06,West,276,0.0,0.0,61,0.00,,,0.00,Wunderground v.1.15,2013-07-28 22:47:00,
2013-07-28 18:52:00,72.4,56.8,30.06,WNW,291,0.0,3.0,58,0.00,,,0.00,Wunderground v.1.15,2013-07-28 22:52:00,
2013-07-28 18:53:00,72.4,56.8,30.06,SSE,148,0.0,3.0,58,0.00,,,0.00,Wunderground v.1.15,2013-07-28 22:53:00,
2013-07-28 18:58:00,73.0,56.4,30.06,West,279,0.0,1.0,56,0.00,,,0.00,Wunderground v.1.15,2013-07-28 22:58:00,
2013-07-28 18:59:00,73.0,55.9,30.05,West,277,0.0,1.0,55,0.00,,,0.00,Wunderground v.1.15,2013-07-28 22:59:00,
2013-07-28 19:00:00,73.1,56.5,30.06,West,277,0.0,1.0,56,0.00,,,0.00,Wunderground v.1.15,2013-07-28 23:00:00,
2013-07-28 19:03:00,73.2,56.1,30.06,West,275,0.0,1.0,55,0.00,,,0.00,Wunderground v.1.15,2013-07-28 23:03:00,
2013-07-28 19:05:00,55.0,53.3,30.14,West,278,0.0,0.0,94,0.00,,,0.00,Wunderground v.1.15,2013-07-28 23:05:00,
2013-07-28 19:06:00,73.2,57.1,30.06,WNW,288,0.0,1.0,57,0.00,,,0.00,Wunderground v.1.15,2013-07-28 23:06:00,
2013-07-28 19:07:00,73.1,57.0,30.06,WSW,254,0.0,2.0,57,0.00,,,0.00,Wunderground v.1.15,2013-07-28 23:07:00,
2013-07-28 19:08:00,73.0,56.4,30.06,WSW,258,0.0,0.0,56,0.00,,,0.00,Wunderground v.1.15,2013-07-28 23:08:00,
2013-07-28 19:09:00,73.0,56.4,30.06,WSW,258,0.0,0.0,56,0.00,,,0.00,Wunderground v.1.15,2013-07-28 23:09:00,
2013-07-28 19:11:00,54.9,53.2,30.14,West,278,0.0,0.0,94,0.00,,,0.00,Wunderground v.1.15,2013-07-28 23:11:00,
2013-07-28 19:12:00,54.9,53.2,30.14,West,278,0.0,0.0,94,0.00,,,0.00,Wunderground v.1.15,2013-07-28 23:12:00,
2013-07-28 19:13:00,72.6,57.4,30.06,ENE,57,0.0,1.0,59,0.00,,,0.00,Wunderground v.1.15,2013-07-28 23:13:00,
2013-07-28 19:14:00,72.5,57.4,30.06,ENE,57,0.0,1.0,59,0.00,,,0.00,Wunderground v.1.15,2013-07-28 23:14:00,
2013-07-28 19:15:00,72.4,55.3,30.06,ENE,57,0.0,1.0,55,0.00,,,0.00,Wunderground v.1.15,2013-07-28 23:15:00,
2013-07-28 19:16:00,54.9,53.2,30.14,West,278,0.0,0.0,94,0.00,,,0.00,Wunderground v.1.15,2013-07-28 23:16:00,
2013-07-28 19:17:00,72.3,55.7,30.06,WNW,286,0.0,1.0,56,0.00,,,0.00,Wunderground v.1.15,2013-07-28 23:17:00,
2013-07-28 19:18:00,54.8,53.1,30.14,West,278,0.0,0.0,94,0.00,,,0.00,Wunderground v.1.15,2013-07-28 23:18:00,
2013-07-28 19:19:00,72.2,55.6,30.06,WNW,286,0.0,0.0,56,0.00,,,0.00,Wunderground v.1.15,2013-07-28 23:19:00,
2013-07-28 19:20:00,54.8,53.1,30.15,West,278,0.0,0.0,94,0.00,,,0.00,Wunderground v.1.15,2013-07-28 23:20:00,
2013-07-28 19:21:00,72.1,55.5,30.06,WNW,286,0.0,0.0,56,0.00,,,0.00,Wunderground v.1.15,2013-07-28 23:21:00,
2013-07-28 19:22:00,72.1,56.0,30.06,WNW,286,0.0,0.0,57,0.00,,,0.00,Wunderground v.1.15,2013-07-28 23:22:00,
2013-07-28 19:24:00,54.8,53.1,30.15,West,278,0.0,0.0,94,0.00,,,0.00,Wunderground v.1.15,2013-07-28 23:24:00,
2013-07-28 19:25:00,72.0,55.4,30.06,WNW,289,0.0,1.0,56,0.00,,,0.00,Wunderground v.1.15,2013-07-28 23:25:00,
2013-07-28 19:27:00,54.8,53.1,30.15,West,278,0.0,0.0,94,0.00,,,0.00,Wunderground v.1.15,2013-07-28 23:27:00,
2013-07-28 19:28:00,71.9,55.8,30.07,NNW,343,0.0,0.0,57,0.00,,,0.00,Wunderground v.1.15,2013-07-28 23:28:00,
2013-07-28 19:30:00,54.8,53.1,30.15,West,278,0.0,0.0,94,0.00,,,0.00,Wunderground v.1.15,2013-07-28 23:30:00,
2013-07-28 19:32:00,54.8,53.1,30.15,West,278,0.0,0.0,94,0.00,,,0.00,Wunderground v.1.15,2013-07-28 23:32:00,
2013-07-28 19:33:00,71.6,56.0,30.07,SW,225,0.0,2.0,58,0.00,,,0.00,Wunderground v.1.15,2013-07-28 23:33:00,
2013-07-28 19:34:00,71.5,55.0,30.07,West,264,1.0,2.0,56,0.00,,,0.00,Wunderground v.1.15,2013-07-28 23:34:00,
2013-07-28 19:35:00,71.4,54.9,30.07,West,264,1.0,2.0,56,0.00,,,0.00,Wunderground v.1.15,2013-07-28 23:35:00,
2013-07-28 19:36:00,54.7,53.0,30.15,West,278,0.0,0.0,94,0.00,,,0.00,Wunderground v.1.15,2013-07-28 23:36:00,
2013-07-28 19:37:00,54.8,53.1,30.15,West,278,0.0,0.0,94,0.00,,,0.00,Wunderground v.1.15,2013-07-28 23:37:00,
2013-07-28 19:38:00,54.7,53.0,30.15,West,278,0.0,0.0,94,0.00,,,0.00,Wunderground v.1.15,2013-07-28 23:38:00,
2013-07-28 19:39:00,71.4,55.9,30.07,West,264,0.0,0.0,58,0.00,,,0.00,Wunderground v.1.15,2013-07-28 23:39:00,
2013-07-28 19:40:00,54.7,53.0,30.15,West,278,0.0,0.0,94,0.00,,,0.00,Wunderground v.1.15,2013-07-28 23:40:00,
2013-07-28 19:41:00,54.7,53.0,30.15,West,278,0.0,0.0,94,0.00,,,0.00,Wunderground v.1.15,2013-07-28 23:41:00,
2013-07-28 19:42:00,71.3,56.7,30.07,West,264,0.0,0.0,60,0.00,,,0.00,Wunderground v.1.15,2013-07-28 23:42:00,
2013-07-28 19:43:00,54.7,53.0,30.15,West,278,0.0,0.0,94,0.00,,,0.00,Wunderground v.1.15,2013-07-28 23:43:00,
2013-07-28 19:44:00,54.6,52.9,30.15,West,278,0.0,0.0,94,0.00,,,0.00,Wunderground v.1.15,2013-07-28 23:44:00,
2013-07-28 19:45:00,71.2,55.7,30.07,West,264,0.0,0.0,58,0.00,,,0.00,Wunderground v.1.15,2013-07-28 23:45:00,
2013-07-28 19:46:00,54.7,53.0,30.15,West,278,0.0,0.0,94,0.00,,,0.00,Wunderground v.1.15,2013-07-28 23:46:00,
2013-07-28 19:48:00,71.0,56.9,30.07,SW,214,0.0,1.0,61,0.00,,,0.00,Wunderground v.1.15,2013-07-28 23:48:00,
2013-07-28 19:49:00,71.0,57.3,30.07,SW,214,0.0,1.0,62,0.00,,,0.00,Wunderground v.1.15,2013-07-28 23:49:00,
2013-07-28 19:50:00,70.8,56.7,30.07,SW,214,0.0,1.0,61,0.00,,,0.00,Wunderground v.1.15,2013-07-28 23:50:00,
2013-07-28 19:51:00,54.6,52.9,30.15,West,278,0.0,0.0,94,0.00,,,0.00,Wunderground v.1.15,2013-07-28 23:51:00,
2013-07-28 19:52:00,54.6,52.9,30.15,West,278,0.0,0.0,94,0.00,,,0.00,Wunderground v.1.15,2013-07-28 23:52:00,
2013-07-28 19:53:00,54.6,52.9,30.15,West,278,0.0,0.0,94,0.00,,,0.00,Wunderground v.1.15,2013-07-28 23:53:00,
2013-07-28 19:54:00,54.6,52.9,30.15,West,278,0.0,0.0,94,0.00,,,0.00,Wunderground v.1.15,2013-07-28 23:54:00,
2013-07-28 19:55:00,70.6,56.0,30.07,West,278,0.0,1.0,60,0.00,,,0.00,Wunderground v.1.15,2013-07-28 23:55:00,
2013-07-28 19:56:00,70.6,56.9,30.08,West,278,0.0,1.0,62,0.00,,,0.00,Wunderground v.1.15,2013-07-28 23:56:00,
2013-07-28 19:57:00,70.6,56.5,30.07,West,278,0.0,1.0,61,0.00,,,0.00,Wunderground v.1.15,2013-07-28 23:57:00,
2013-07-28 19:58:00,54.5,52.8,30.15,West,278,0.0,0.0,94,0.00,,,0.00,Wunderground v.1.15,2013-07-28 23:58:00,
2013-07-28 19:59:00,54.5,52.8,30.15,West,278,0.0,0.0,94,0.00,,,0.00,Wunderground v.1.15,2013-07-28 23:59:00,
2013-07-28 20:00:00,70.6,56.5,30.08,West,278,0.0,0.0,61,0.00,,,0.00,Wunderground v.1.15,2013-07-29 00:00:00,
2013-07-28 20:01:00,54.5,52.8,30.15,West,278,0.0,0.0,94,0.00,,,0.00,Wunderground v.1.15,2013-07-29 00:01:00,
2013-07-28 20:02:00,54.6,52.9,30.15,West,278,0.0,0.0,94,0.00,,,0.00,Wunderground v.1.15,2013-07-29 00:02:00,
2013-07-28 20:03:00,70.7,56.6,30.08,West,278,0.0,0.0,61,0.00,,,0.00,Wunderground v.1.15,2013-07-29 00:03:00,
2013-07-28 20:04:00,54.6,52.9,30.15,West,278,0.0,0.0,94,0.00,,,0.00,Wunderground v.1.15,2013-07-29 00:04:00,
2013-07-28 20:05:00,70.6,56.5,30.08,West,278,0.0,0.0,61,0.00,,,0.00,Wunderground v.1.15,2013-07-29 00:05:00,
2013-07-28 20:06:00,54.7,53.0,30.15,West,278,0.0,0.0,94,0.00,,,0.00,Wunderground v.1.15,2013-07-29 00:06:00,
2013-07-28 20:07:00,54.7,53.0,30.15,West,278,0.0,0.0,94,0.00,,,0.00,Wunderground v.1.15,2013-07-29 00:07:00,
2013-07-28 20:08:00,70.6,56.5,30.08,West,278,0.0,0.0,61,0.00,,,0.00,Wunderground v.1.15,2013-07-29 00:08:00,
2013-07-28 20:09:00,70.6,56.0,30.08,West,278,0.0,0.0,60,0.00,,,0.00,Wunderground v.1.15,2013-07-29 00:09:00,
2013-07-28 20:10:00,54.7,53.0,30.15,West,278,0.0,0.0,94,0.00,,,0.00,Wunderground v.1.15,2013-07-29 00:10:00,
2013-07-28 20:12:00,54.8,53.1,30.15,West,278,0.0,0.0,94,0.00,,,0.00,Wunderground v.1.15,2013-07-29 00:12:00,
2013-07-28 20:13:00,70.6,56.0,30.08,West,278,0.0,0.0,60,0.00,,,0.00,Wunderground v.1.15,2013-07-29 00:13:00,
2013-07-28 20:14:00,54.8,53.1,30.15,West,278,0.0,0.0,94,0.00,,,0.00,Wunderground v.1.15,2013-07-29 00:14:00,
2013-07-28 20:15:00,70.5,55.9,30.08,West,278,0.0,0.0,60,0.00,,,0.00,Wunderground v.1.15,2013-07-29 00:15:00,
2013-07-28 20:16:00,54.9,53.2,30.15,West,278,0.0,0.0,94,0.00,,,0.00,Wunderground v.1.15,2013-07-29 00:16:00,
2013-07-28 20:17:00,54.9,53.2,30.16,West,278,0.0,0.0,94,0.00,,,0.00,Wunderground v.1.15,2013-07-29 00:17:00,
2013-07-28 20:18:00,70.3,56.2,30.08,West,278,0.0,0.0,61,0.00,,,0.00,Wunderground v.1.15,2013-07-29 00:18:00,
2013-07-28 20:19:00,55.0,53.6,30.15,West,278,0.0,0.0,95,0.00,,,0.00,Wunderground v.1.15,2013-07-29 00:19:00,
2013-07-28 20:20:00,70.2,56.1,30.08,West,278,0.0,1.0,61,0.00,,,0.00,Wunderground v.1.15,2013-07-29 00:20:00,
2013-07-28 20:21:00,70.2,56.1,30.08,West,278,0.0,1.0,61,0.00,,,0.00,Wunderground v.1.15,2013-07-29 00:21:00,
2013-07-28 20:22:00,55.1,53.7,30.16,West,278,0.0,0.0,95,0.00,,,0.00,Wunderground v.1.15,2013-07-29 00:22:00,
2013-07-28 20:23:00,55.1,53.7,30.16,West,278,0.0,0.0,95,0.00,,,0.00,Wunderground v.1.15,2013-07-29 00:23:00,
2013-07-28 20:24:00,55.1,53.7,30.16,West,278,0.0,0.0,95,0.00,,,0.00,Wunderground v.1.15,2013-07-29 00:24:00,
2013-07-28 20:25:00,69.9,56.7,30.08,West,278,0.0,1.0,63,0.00,,,0.00,Wunderground v.1.15,2013-07-29 00:25:00,
2013-07-28 20:26:00,55.2,53.8,30.16,West,278,0.0,0.0,95,0.00,,,0.00,Wunderground v.1.15,2013-07-29 00:26:00,
2013-07-28 20:27:00,69.7,56.1,30.08,West,278,0.0,1.0,62,0.00,,,0.00,Wunderground v.1.15,2013-07-29 00:27:00,
2013-07-28 20:28:00,69.6,56.0,30.08,West,278,0.0,0.0,62,0.00,,,0.00,Wunderground v.1.15,2013-07-29 00:28:00,
2013-07-28 20:29:00,69.6,56.0,30.08,West,278,0.0,0.0,62,0.00,,,0.00,Wunderground v.1.15,2013-07-29 00:29:00,
2013-07-28 20:30:00,55.3,53.9,30.16,West,278,0.0,0.0,95,0.00,,,0.00,Wunderground v.1.15,2013-07-29 00:30:00,
2013-07-28 20:31:00,69.4,57.5,30.08,West,278,0.0,0.0,66,0.00,,,0.00,Wunderground v.1.15,2013-07-29 00:31:00,
2013-07-28 20:32:00,55.4,54.0,30.16,West,278,0.0,0.0,95,0.00,,,0.00,Wunderground v.1.15,2013-07-29 00:32:00,
2013-07-28 20:33:00,55.4,54.0,30.16,West,278,0.0,0.0,95,0.00,,,0.00,Wunderground v.1.15,2013-07-29 00:33:00,
2013-07-28 20:34:00,55.4,54.0,30.16,West,278,0.0,0.0,95,0.00,,,0.00,Wunderground v.1.15,2013-07-29 00:34:00,
2013-07-28 20:35:00,55.4,53.7,30.16,West,278,0.0,0.0,94,0.00,,,0.00,Wunderground v.1.15,2013-07-29 00:35:00,
2013-07-28 20:36:00,68.8,57.8,30.08,West,278,0.0,0.0,68,0.00,,,0.00,Wunderground v.1.15,2013-07-29 00:36:00,
2013-07-28 20:37:00,68.8,57.8,30.08,West,278,0.0,0.0,68,0.00,,,0.00,Wunderground v.1.15,2013-07-29 00:37:00,
2013-07-28 20:38:00,68.6,57.6,30.08,West,278,0.0,0.0,68,0.00,,,0.00,Wunderground v.1.15,2013-07-29 00:38:00,
2013-07-28 20:39:00,55.4,53.7,30.16,West,278,0.0,0.0,94,0.00,,,0.00,Wunderground v.1.15,2013-07-29 00:39:00,
2013-07-28 20:40:00,55.5,53.8,30.16,West,278,0.0,0.0,94,0.00,,,0.00,Wunderground v.1.15,2013-07-29 00:40:00,
2013-07-28 20:42:00,55.5,53.8,30.16,West,278,0.0,0.0,94,0.00,,,0.00,Wunderground v.1.15,2013-07-29 00:42:00,
2013-07-28 20:43:00,68.2,56.8,30.08,West,278,0.0,0.0,67,0.00,,,0.00,Wunderground v.1.15,2013-07-29 00:43:00,
2013-07-28 20:44:00,68.0,56.6,30.08,West,278,0.0,0.0,67,0.00,,,0.00,Wunderground v.1.15,2013-07-29 00:44:00,
2013-07-28 20:45:00,68.0,56.6,30.08,West,278,0.0,0.0,67,0.00,,,0.00,Wunderground v.1.15,2013-07-29 00:45:00,
2013-07-28 20:46:00,67.9,56.5,30.08,West,278,0.0,0.0,67,0.00,,,0.00,Wunderground v.1.15,2013-07-29 00:46:00,
2013-07-28 20:49:00,67.6,56.2,30.08,West,278,0.0,0.0,67,0.00,,,0.00,Wunderground v.1.15,2013-07-29 00:49:00,
2013-07-28 20:50:00,55.5,53.8,30.16,West,278,0.0,0.0,94,0.00,,,0.00,Wunderground v.1.15,2013-07-29 00:50:00,
2013-07-28 20:51:00,67.5,56.2,30.08,West,278,0.0,0.0,67,0.00,,,0.00,Wunderground v.1.15,2013-07-29 00:51:00,
2013-07-28 20:52:00,55.5,53.8,30.17,West,278,0.0,0.0,94,0.00,,,0.00,Wunderground v.1.15,2013-07-29 00:52:00,
2013-07-28 20:53:00,55.5,53.8,30.17,West,278,0.0,0.0,94,0.00,,,0.00,Wunderground v.1.15,2013-07-29 00:53:00,
2013-07-28 20:54:00,55.5,53.8,30.17,West,278,0.0,0.0,94,0.00,,,0.00,Wunderground v.1.15,2013-07-29 00:54:00,
2013-07-28 20:55:00,55.6,54.2,30.17,West,278,0.0,0.0,95,0.00,,,0.00,Wunderground v.1.15,2013-07-29 00:55:00,
2013-07-28 20:56:00,67.0,56.1,30.08,West,278,0.0,0.0,68,0.00,,,0.00,Wunderground v.1.15,2013-07-29 00:56:00,
2013-07-28 20:58:00,66.8,55.9,30.08,West,278,0.0,0.0,68,0.00,,,0.00,Wunderground v.1.15,2013-07-29 00:58:00,
2013-07-28 20:59:00,55.7,54.3,30.17,West,278,0.0,0.0,95,0.00,,,0.00,Wunderground v.1.15,2013-07-29 00:59:00,
2013-07-28 21:00:00,55.8,54.4,30.17,West,278,0.0,0.0,95,0.00,,,0.00,Wunderground v.1.15,2013-07-29 01:00:00,
2013-07-28 21:01:00,55.8,54.4,30.16,West,278,0.0,0.0,95,0.00,,,0.00,Wunderground v.1.15,2013-07-29 01:01:00,
2013-07-28 21:02:00,66.5,56.0,30.08,West,278,0.0,0.0,69,0.00,,,0.00,Wunderground v.1.15,2013-07-29 01:02:00,
2013-07-28 21:04:00,66.4,55.9,30.08,West,278,0.0,0.0,69,0.00,,,0.00,Wunderground v.1.15,2013-07-29 01:04:00,
2013-07-28 21:05:00,56.0,54.6,30.17,West,278,0.0,0.0,95,0.00,,,0.00,Wunderground v.1.15,2013-07-29 01:05:00,
2013-07-28 21:06:00,66.3,55.8,30.08,West,278,0.0,0.0,69,0.00,,,0.00,Wunderground v.1.15,2013-07-29 01:06:00,
2013-07-28 21:07:00,56.0,54.6,30.17,West,278,0.0,0.0,95,0.00,,,0.00,Wunderground v.1.15,2013-07-29 01:07:00,
2013-07-28 21:08:00,56.1,54.7,30.17,West,278,0.0,0.0,95,0.00,,,0.00,Wunderground v.1.15,2013-07-29 01:08:00,
2013-07-28 21:09:00,66.1,55.2,30.08,West,278,0.0,0.0,68,0.00,,,0.00,Wunderground v.1.15,2013-07-29 01:09:00,
2013-07-28 21:10:00,56.2,54.8,30.17,West,278,0.0,0.0,95,0.00,,,0.00,Wunderground v.1.15,2013-07-29 01:10:00,
2013-07-28 21:11:00,66.0,55.5,30.08,West,278,0.0,0.0,69,0.00,,,0.00,Wunderground v.1.15,2013-07-29 01:11:00,
2013-07-28 21:12:00,56.3,54.9,30.17,West,278,0.0,1.0,95,0.00,,,0.00,Wunderground v.1.15,2013-07-29 01:12:00,
2013-07-28 21:13:00,65.9,55.4,30.08,West,278,0.0,0.0,69,0.00,,,0.00,Wunderground v.1.15,2013-07-29 01:13:00,
2013-07-28 21:14:00,56.4,55.0,30.17,West,278,0.0,1.0,95,0.00,,,0.00,Wunderground v.1.15,2013-07-29 01:14:00,
2013-07-28 21:15:00,65.8,55.7,30.08,West,278,0.0,0.0,70,0.00,,,0.00,Wunderground v.1.15,2013-07-29 01:15:00,
2013-07-28 21:16:00,56.5,55.1,30.17,West,278,0.0,1.0,95,0.00,,,0.00,Wunderground v.1.15,2013-07-29 01:16:00,
2013-07-28 21:17:00,56.5,55.1,30.17,West,278,0.0,1.0,95,0.00,,,0.00,Wunderground v.1.15,2013-07-29 01:17:00,
2013-07-28 21:18:00,56.6,55.2,30.18,West,278,0.0,1.0,95,0.00,,,0.00,Wunderground v.1.15,2013-07-29 01:18:00,
2013-07-28 21:20:00,65.5,55.8,30.08,West,278,0.0,0.0,71,0.00,,,0.00,Wunderground v.1.15,2013-07-29 01:20:00,
2013-07-28 21:21:00,56.7,55.0,30.17,West,278,0.0,0.0,94,0.00,,,0.00,Wunderground v.1.15,2013-07-29 01:21:00,
2013-07-28 21:22:00,56.7,55.0,30.18,West,278,0.0,0.0,94,0.00,,,0.00,Wunderground v.1.15,2013-07-29 01:22:00,
2013-07-28 21:23:00,65.4,56.5,30.08,West,278,0.0,0.0,73,0.00,,,0.00,Wunderground v.1.15,2013-07-29 01:23:00,
2013-07-28 21:24:00,56.8,55.1,30.18,West,278,0.0,0.0,94,0.00,,,0.00,Wunderground v.1.15,2013-07-29 01:24:00,
2013-07-28 21:25:00,65.4,56.9,30.08,West,278,0.0,0.0,74,0.00,,,0.00,Wunderground v.1.15,2013-07-29 01:25:00,
2013-07-28 21:26:00,57.0,55.6,30.18,WSW,246,0.0,0.0,95,0.00,,,0.00,Wunderground v.1.15,2013-07-29 01:26:00,
2013-07-28 21:28:00,65.2,56.7,30.08,West,278,0.0,0.0,74,0.00,,,0.00,Wunderground v.1.15,2013-07-29 01:28:00,
2013-07-28 21:30:00,57.3,55.6,30.18,WSW,242,0.0,0.0,94,0.00,,,0.00,Wunderground v.1.15,2013-07-29 01:30:00,
2013-07-28 21:31:00,65.2,56.7,30.09,West,278,0.0,0.0,74,0.00,,,0.00,Wunderground v.1.15,2013-07-29 01:31:00,
2013-07-28 21:32:00,57.4,55.7,30.18,WSW,242,0.0,0.0,94,0.00,,,0.00,Wunderground v.1.15,2013-07-29 01:32:00,
2013-07-28 21:33:00,57.5,55.8,30.18,WSW,242,0.0,0.0,94,0.00,,,0.00,Wunderground v.1.15,2013-07-29 01:33:00,
2013-07-28 21:34:00,57.6,55.9,30.17,WSW,242,0.0,0.0,94,0.00,,,0.00,Wunderground v.1.15,2013-07-29 01:34:00,
2013-07-28 21:35:00,57.7,56.0,30.18,WSW,242,0.0,0.0,94,0.00,,,0.00,Wunderground v.1.15,2013-07-29 01:35:00,
2013-07-28 21:36:00,57.8,56.1,30.18,WSW,242,0.0,0.0,94,0.00,,,0.00,Wunderground v.1.15,2013-07-29 01:36:00,
2013-07-28 21:38:00,58.0,56.3,30.18,SW,215,0.0,0.0,94,0.00,,,0.00,Wunderground v.1.15,2013-07-29 01:38:00,
2013-07-28 21:39:00,58.1,56.4,30.18,SW,215,0.0,0.0,94,0.00,,,0.00,Wunderground v.1.15,2013-07-29 01:39:00,
2013-07-28 21:40:00,58.3,56.6,30.18,SW,215,0.0,0.0,94,0.00,,,0.00,Wunderground v.1.15,2013-07-29 01:40:00,
2013-07-28 21:41:00,58.3,56.6,30.18,SW,215,0.0,0.0,94,0.00,,,0.00,Wunderground v.1.15,2013-07-29 01:41:00,
2013-07-28 21:42:00,58.5,56.5,30.18,SW,215,0.0,0.0,93,0.00,,,0.00,Wunderground v.1.15,2013-07-29 01:42:00,
2013-07-28 21:43:00,58.5,56.5,30.18,SW,215,0.0,0.0,93,0.00,,,0.00,Wunderground v.1.15,2013-07-29 01:43:00,
2013-07-28 21:44:00,58.6,56.6,30.18,SW,215,0.0,0.0,93,0.00,,,0.00,Wunderground v.1.15,2013-07-29 01:44:00,
2013-07-28 21:45:00,58.7,57.0,30.18,SW,215,0.0,0.0,94,0.00,,,0.00,Wunderground v.1.15,2013-07-29 01:45:00,
2013-07-28 21:46:00,58.7,57.0,30.18,SW,215,0.0,0.0,94,0.00,,,0.00,Wunderground v.1.15,2013-07-29 01:46:00,
2013-07-28 21:47:00,58.8,57.1,30.18,SW,215,0.0,0.0,94,0.00,,,0.00,Wunderground v.1.15,2013-07-29 01:47:00,
2013-07-28 21:48:00,58.9,56.9,30.18,SW,215,0.0,0.0,93,0.00,,,0.00,Wunderground v.1.15,2013-07-29 01:48:00,
2013-07-28 21:49:00,59.0,57.0,30.18,SW,215,0.0,0.0,93,0.00,,,0.00,Wunderground v.1.15,2013-07-29 01:49:00,
2013-07-28 21:50:00,59.0,57.0,30.18,SW,215,0.0,0.0,93,0.00,,,0.00,Wunderground v.1.15,2013-07-29 01:50:00,
2013-07-28 21:51:00,59.1,57.1,30.18,SW,215,0.0,0.0,93,0.00,,,0.00,Wunderground v.1.15,2013-07-29 01:51:00,
2013-07-28 21:52:00,59.3,57.6,30.18,SW,215,0.0,1.0,94,0.00,,,0.00,Wunderground v.1.15,2013-07-29 01:52:00,
2013-07-28 21:54:00,59.5,57.5,30.18,SW,215,0.0,1.0,93,0.00,,,0.00,Wunderground v.1.15,2013-07-29 01:54:00,
2013-07-28 21:55:00,59.6,57.6,30.19,SW,215,0.0,1.0,93,0.00,,,0.00,Wunderground v.1.15,2013-07-29 01:55:00,
2013-07-28 21:56:00,59.7,57.7,30.19,SW,215,0.0,1.0,93,0.00,,,0.00,Wunderground v.1.15,2013-07-29 01:56:00,
2013-07-28 21:57:00,59.8,57.8,30.19,SW,215,0.0,1.0,93,0.00,,,0.00,Wunderground v.1.15,2013-07-29 01:57:00,
2013-07-28 21:58:00,59.9,57.9,30.19,SW,215,0.0,1.0,93,0.00,,,0.00,Wunderground v.1.15,2013-07-29 01:58:00,
2013-07-28 21:59:00,60.0,58.0,30.19,West,275,0.0,1.0,93,0.00,,,0.00,Wunderground v.1.15,2013-07-29 01:59:00,
2013-07-28 22:00:00,60.2,58.2,30.19,West,275,0.0,0.0,93,0.00,,,0.00,Wunderground v.1.15,2013-07-29 02:00:00,
2013-07-28 22:01:00,60.3,58.3,30.19,West,275,0.0,0.0,93,0.00,,,0.00,Wunderground v.1.15,2013-07-29 02:01:00,
2013-07-28 22:02:00,60.4,58.4,30.19,West,275,0.0,0.0,93,0.00,,,0.00,Wunderground v.1.15,2013-07-29 02:02:00,
2013-07-28 22:03:00,60.5,58.5,30.19,West,259,0.0,0.0,93,0.00,,,0.00,Wunderground v.1.15,2013-07-29 02:03:00,
2013-07-28 22:05:00,60.7,58.4,30.19,WSW,241,0.0,0.0,92,0.00,,,0.00,Wunderground v.1.15,2013-07-29 02:05:00,
2013-07-28 22:07:00,60.9,58.6,30.19,WSW,252,0.0,0.0,92,0.00,,,0.00,Wunderground v.1.15,2013-07-29 02:07:00,
2013-07-28 22:08:00,61.0,58.7,30.19,WSW,252,0.0,0.0,92,0.00,,,0.00,Wunderground v.1.15,2013-07-29 02:08:00,
2013-07-28 22:09:00,61.2,58.6,30.19,WSW,252,0.0,0.0,91,0.00,,,0.00,Wunderground v.1.15,2013-07-29 02:09:00,
2013-07-28 22:11:00,61.3,58.7,30.19,WSW,252,0.0,0.0,91,0.00,,,0.00,Wunderground v.1.15,2013-07-29 02:11:00,
2013-07-28 22:13:00,61.5,58.8,30.19,WSW,252,0.0,0.0,91,0.00,,,0.00,Wunderground v.1.15,2013-07-29 02:13:00,
2013-07-28 22:14:00,61.6,58.9,30.19,WSW,252,0.0,0.0,91,0.00,,,0.00,Wunderground v.1.15,2013-07-29 02:14:00,
2013-07-28 22:15:00,61.6,58.6,30.19,South,178,0.0,0.0,90,0.00,,,0.00,Wunderground v.1.15,2013-07-29 02:15:00,
2013-07-28 22:16:00,61.8,58.8,30.19,South,178,0.0,0.0,90,0.00,,,0.00,Wunderground v.1.15,2013-07-29 02:16:00,
2013-07-28 22:17:00,62.0,59.0,30.19,South,178,0.0,0.0,90,0.00,,,0.00,Wunderground v.1.15,2013-07-29 02:17:00,
2013-07-28 22:20:00,62.3,59.3,30.19,South,178,0.0,0.0,90,0.00,,,0.00,Wunderground v.1.15,2013-07-29 02:20:00,
2013-07-28 22:21:00,62.5,59.2,30.19,South,178,0.0,0.0,89,0.00,,,0.00,Wunderground v.1.15,2013-07-29 02:21:00,
2013-07-28 22:22:00,62.6,59.3,30.19,South,178,0.0,0.0,89,0.00,,,0.00,Wunderground v.1.15,2013-07-29 02:22:00,
2013-07-28 22:24:00,62.9,59.6,30.19,SW,236,0.0,2.0,89,0.00,,,0.00,Wunderground v.1.15,2013-07-29 02:24:00,
2013-07-28 22:25:00,62.9,59.3,30.19,WSW,252,0.0,2.0,88,0.00,,,0.00,Wunderground v.1.15,2013-07-29 02:25:00,
2013-07-28 22:26:00,63.1,59.5,30.19,WSW,252,0.0,2.0,88,0.00,,,0.00,Wunderground v.1.15,2013-07-29 02:26:00,
2013-07-28 22:27:00,63.3,59.7,30.19,WNW,290,0.0,2.0,88,0.00,,,0.00,Wunderground v.1.15,2013-07-29 02:27:00,
2013-07-28 22:28:00,63.5,59.9,30.19,WNW,290,0.0,2.0,88,0.00,,,0.00,Wunderground v.1.15,2013-07-29 02:28:00,
2013-07-28 22:29:00,63.6,60.0,30.19,SSW,200,0.0,2.0,88,0.00,,,0.00,Wunderground v.1.15,2013-07-29 02:29:00,
2013-07-28 22:30:00,63.8,60.2,30.19,South,173,0.0,0.0,88,0.00,,,0.00,Wunderground v.1.15,2013-07-29 02:30:00,
2013-07-28 22:31:00,63.8,59.9,30.19,South,173,0.0,0.0,87,0.00,,,0.00,Wunderground v.1.15,2013-07-29 02:31:00,
2013-07-28 22:32:00,63.9,60.0,30.19,South,173,0.0,0.0,87,0.00,,,0.00,Wunderground v.1.15,2013-07-29 02:32:00,
2013-07-28 22:33:00,64.0,60.1,30.19,South,178,0.0,1.0,87,0.00,,,0.00,Wunderground v.1.15,2013-07-29 02:33:00,
2013-07-28 22:34:00,64.1,59.8,30.19,SW,222,0.0,1.0,86,0.00,,,0.00,Wunderground v.1.15,2013-07-29 02:34:00,
2013-07-28 22:35:00,64.3,60.3,30.19,SSE,167,0.0,2.0,87,0.00,,,0.00,Wunderground v.1.15,2013-07-29 02:35:00,
2013-07-28 22:36:00,64.4,60.1,30.19,SSW,200,0.0,7.0,86,0.00,,,0.00,Wunderground v.1.15,2013-07-29 02:36:00,
2013-07-28 22:37:00,64.5,59.9,30.19,South,171,1.0,7.0,85,0.00,,,0.00,Wunderground v.1.15,2013-07-29 02:37:00,
2013-07-28 22:38:00,64.6,59.7,30.19,SSW,194,1.0,7.0,84,0.00,,,0.00,Wunderground v.1.15,2013-07-29 02:38:00,
2013-07-28 22:39:00,64.8,60.2,30.19,South,186,1.0,7.0,85,0.00,,,0.00,Wunderground v.1.15,2013-07-29 02:39:00,
2013-07-28 22:40:00,64.9,59.9,30.19,SSW,210,1.0,1.0,84,0.00,,,0.00,Wunderground v.1.15,2013-07-29 02:40:00,
2013-07-28 22:41:00,65.0,60.4,30.19,SSW,209,1.0,1.0,85,0.00,,,0.00,Wunderground v.1.15,2013-07-29 02:41:00,
2013-07-28 22:42:00,65.1,60.5,30.19,SSW,210,1.0,1.0,85,0.00,,,0.00,Wunderground v.1.15,2013-07-29 02:42:00,
2013-07-28 22:43:00,62.9,54.9,30.10,West,278,0.0,0.0,75,0.00,,,0.00,Wunderground v.1.15,2013-07-29 02:43:00,
2013-07-28 22:44:00,65.2,60.2,30.19,SSW,210,1.0,1.0,84,0.00,,,0.00,Wunderground v.1.15,2013-07-29 02:44:00,
2013-07-28 22:45:00,65.3,60.0,30.19,SSW,210,1.0,1.0,83,0.00,,,0.00,Wunderground v.1.15,2013-07-29 02:45:00,
2013-07-28 22:46:00,65.4,60.1,30.19,SSW,204,1.0,1.0,83,0.00,,,0.00,Wunderground v.1.15,2013-07-29 02:46:00,
2013-07-28 22:47:00,65.5,60.2,30.19,South,188,0.0,3.0,83,0.00,,,0.00,Wunderground v.1.15,2013-07-29 02:47:00,
2013-07-28 22:48:00,65.6,60.0,30.19,SSE,163,1.0,3.0,82,0.00,,,0.00,Wunderground v.1.15,2013-07-29 02:48:00,
2013-07-28 22:49:00,65.7,60.1,30.19,SSE,164,0.0,3.0,82,0.00,,,0.00,Wunderground v.1.15,2013-07-29 02:49:00,
2013-07-28 22:50:00,65.8,60.5,30.19,SSE,164,0.0,0.0,83,0.00,,,0.00,Wunderground v.1.15,2013-07-29 02:50:00,
2013-07-28 22:51:00,65.9,60.2,30.19,SSW,192,1.0,1.0,82,0.00,,,0.00,Wunderground v.1.15,2013-07-29 02:51:00,
2013-07-28 22:53:00,66.0,60.3,30.19,SSE,154,1.0,2.0,82,0.00,,,0.00,Wunderground v.1.15,2013-07-29 02:53:00,
2013-07-28 22:54:00,66.1,60.4,30.19,SSE,154,1.0,2.0,82,0.00,,,0.00,Wunderground v.1.15,2013-07-29 02:54:00,
2013-07-28 22:55:00,66.2,60.5,30.19,SSE,154,1.0,2.0,82,0.00,,,0.00,Wunderground v.1.15,2013-07-29 02:55:00,
2013-07-28 22:56:00,66.3,60.6,30.19,SSE,154,1.0,2.0,82,0.00,,,0.00,Wunderground v.1.15,2013-07-29 02:56:00,
2013-07-28 22:57:00,66.4,60.7,30.19,SSE,154,1.0,2.0,82,0.00,,,0.00,Wunderground v.1.15,2013-07-29 02:57:00,
2013-07-28 22:58:00,66.5,60.8,30.19,SSW,200,0.0,2.0,82,0.00,,,0.00,Wunderground v.1.15,2013-07-29 02:58:00,
2013-07-28 22:59:00,66.6,60.9,30.19,SSW,202,0.0,2.0,82,0.00,,,0.00,Wunderground v.1.15,2013-07-29 02:59:00,
2013-07-28 23:00:00,66.6,60.6,30.19,WNW,295,0.0,0.0,81,0.00,,,0.00,Wunderground v.1.15,2013-07-29 03:00:00,
2013-07-28 23:01:00,66.7,60.7,30.19,WNW,295,0.0,0.0,81,0.00,,,0.00,Wunderground v.1.15,2013-07-29 03:01:00,
2013-07-28 23:02:00,66.7,61.0,30.19,SSW,202,0.0,4.0,82,0.00,,,0.00,Wunderground v.1.15,2013-07-29 03:02:00,
2013-07-28 23:04:00,66.9,60.9,30.19,SSW,197,0.0,4.0,81,0.00,,,0.00,Wunderground v.1.15,2013-07-29 03:04:00,
2013-07-28 23:05:00,67.0,61.0,30.19,SSW,197,1.0,4.0,81,0.00,,,0.00,Wunderground v.1.15,2013-07-29 03:05:00,
2013-07-28 23:06:00,67.0,61.0,30.19,SSW,196,1.0,4.0,81,0.00,,,0.00,Wunderground v.1.15,2013-07-29 03:06:00,
2013-07-28 23:07:00,67.1,61.1,30.19,SSW,196,1.0,4.0,81,0.00,,,0.00,Wunderground v.1.15,2013-07-29 03:07:00,
2013-07-28 23:08:00,67.2,61.2,30.19,SSW,196,1.0,4.0,81,0.00,,,0.00,Wunderground v.1.15,2013-07-29 03:08:00,
2013-07-28 23:09:00,67.3,61.6,30.19,SSW,197,0.0,4.0,82,0.00,,,0.00,Wunderground v.1.15,2013-07-29 03:09:00,
2013-07-28 23:10:00,67.4,61.4,30.19,SW,223,1.0,1.0,81,0.00,,,0.00,Wunderground v.1.15,2013-07-29 03:10:00,
2013-07-28 23:11:00,67.5,61.8,30.19,SW,223,1.0,1.0,82,0.00,,,0.00,Wunderground v.1.15,2013-07-29 03:11:00,
2013-07-28 23:12:00,67.5,61.8,30.19,SW,223,1.0,1.0,82,0.00,,,0.00,Wunderground v.1.15,2013-07-29 03:12:00,
2013-07-28 23:13:00,67.6,61.6,30.19,SW,223,0.0,1.0,81,0.00,,,0.00,Wunderground v.1.15,2013-07-29 03:13:00,
2013-07-28 23:14:00,67.6,61.2,30.19,South,174,0.0,2.0,80,0.00,,,0.00,Wunderground v.1.15,2013-07-29 03:14:00,
2013-07-28 23:15:00,67.7,61.3,30.19,West,270,0.0,2.0,80,0.00,,,0.00,Wunderground v.1.15,2013-07-29 03:15:00,
2013-07-28 23:16:00,67.8,61.8,30.19,West,270,0.0,2.0,81,0.00,,,0.00,Wunderground v.1.15,2013-07-29 03:16:00,
2013-07-28 23:17:00,67.9,61.9,30.19,West,270,0.0,2.0,81,0.00,,,0.00,Wunderground v.1.15,2013-07-29 03:17:00,
2013-07-28 23:18:00,68.0,61.2,30.19,West,270,0.0,2.0,79,0.00,,,0.00,Wunderground v.1.15,2013-07-29 03:18:00,
2013-07-28 23:19:00,68.1,61.7,30.19,West,270,0.0,2.0,80,0.00,,,0.00,Wunderground v.1.15,2013-07-29 03:19:00,
2013-07-28 23:20:00,68.2,61.8,30.19,West,270,0.0,0.0,80,0.00,,,0.00,Wunderground v.1.15,2013-07-29 03:20:00,
2013-07-28 23:21:00,68.3,62.2,30.19,SSW,200,0.0,3.0,81,0.00,,,0.00,Wunderground v.1.15,2013-07-29 03:21:00,
2013-07-28 23:22:00,68.4,62.0,30.19,SSW,201,0.0,3.0,80,0.00,,,0.00,Wunderground v.1.15,2013-07-29 03:22:00,
2013-07-28 23:23:00,68.5,62.1,30.19,SSW,201,0.0,3.0,80,0.00,,,0.00,Wunderground v.1.15,2013-07-29 03:23:00,
2013-07-28 23:24:00,68.6,62.5,30.19,SSW,201,0.0,3.0,81,0.00,,,0.00,Wunderground v.1.15,2013-07-29 03:24:00,
2013-07-28 23:25:00,68.6,62.2,30.19,SSW,201,0.0,3.0,80,0.00,,,0.00,Wunderground v.1.15,2013-07-29 03:25:00,
2013-07-28 23:26:00,68.8,62.4,30.19,SSW,201,0.0,3.0,80,0.00,,,0.00,Wunderground v.1.15,2013-07-29 03:26:00,
2013-07-28 23:27:00,68.8,62.4,30.19,SSW,201,0.0,3.0,80,0.00,,,0.00,Wunderground v.1.15,2013-07-29 03:27:00,
2013-07-28 23:28:00,68.9,62.5,30.19,SW,236,0.0,3.0,80,0.00,,,0.00,Wunderground v.1.15,2013-07-29 03:28:00,
2013-07-28 23:29:00,69.0,62.6,30.19,SW,236,0.0,3.0,80,0.00,,,0.00,Wunderground v.1.15,2013-07-29 03:29:00,
2013-07-28 23:30:00,69.1,62.7,30.19,West,263,0.0,0.0,80,0.00,,,0.00,Wunderground v.1.15,2013-07-29 03:30:00,
2013-07-28 23:31:00,69.2,62.4,30.19,WSW,243,0.0,2.0,79,0.00,,,0.00,Wunderground v.1.15,2013-07-29 03:31:00,
2013-07-28 23:32:00,69.3,62.5,30.19,WSW,240,0.0,2.0,79,0.00,,,0.00,Wunderground v.1.15,2013-07-29 03:32:00,
2013-07-28 23:33:00,69.3,62.5,30.19,South,178,1.0,3.0,79,0.00,,,0.00,Wunderground v.1.15,2013-07-29 03:33:00,
2013-07-28 23:34:00,69.3,62.1,30.19,SW,227,1.0,3.0,78,0.00,,,0.00,Wunderground v.1.15,2013-07-29 03:34:00,
2013-07-28 23:35:00,69.4,62.6,30.19,South,182,1.0,3.0,79,0.00,,,0.00,Wunderground v.1.15,2013-07-29 03:35:00,
2013-07-28 23:36:00,69.4,62.2,30.19,SSW,204,1.0,3.0,78,0.00,,,0.00,Wunderground v.1.15,2013-07-29 03:36:00,
2013-07-28 23:37:00,69.5,61.6,30.19,SSW,205,1.0,3.0,76,0.00,,,0.00,Wunderground v.1.15,2013-07-29 03:37:00,
2013-07-28 23:38:00,69.5,62.0,30.19,SSW,202,1.0,3.0,77,0.00,,,0.00,Wunderground v.1.15,2013-07-29 03:38:00,
2013-07-28 23:39:00,69.6,62.1,30.19,South,187,2.0,3.0,77,0.00,,,0.00,Wunderground v.1.15,2013-07-29 03:39:00,
2013-07-28 23:40:00,69.6,62.1,30.19,SSW,200,1.0,4.0,77,0.00,,,0.00,Wunderground v.1.15,2013-07-29 03:40:00,
2013-07-28 23:41:00,69.7,61.8,30.19,South,178,2.0,4.0,76,0.00,,,0.00,Wunderground v.1.15,2013-07-29 03:41:00,
2013-07-28 23:42:00,69.7,62.2,30.19,South,187,1.0,4.0,77,0.00,,,0.00,Wunderground v.1.15,2013-07-29 03:42:00,
2013-07-28 23:43:00,69.8,61.9,30.19,SSW,196,2.0,4.0,76,0.00,,,0.00,Wunderground v.1.15,2013-07-29 03:43:00,
2013-07-28 23:44:00,69.8,62.3,30.19,SSW,196,2.0,4.0,77,0.00,,,0.00,Wunderground v.1.15,2013-07-29 03:44:00,
2013-07-28 23:45:00,69.9,62.4,30.19,WSW,239,2.0,4.0,77,0.00,,,0.00,Wunderground v.1.15,2013-07-29 03:45:00,
2013-07-28 23:46:00,70.0,62.5,30.19,South,184,2.0,4.0,77,0.00,,,0.00,Wunderground v.1.15,2013-07-29 03:46:00,
2013-07-28 23:47:00,70.0,61.7,30.19,SSW,197,2.0,4.0,75,0.00,,,0.00,Wunderground v.1.15,2013-07-29 03:47:00,
2013-07-28 23:48:00,70.1,61.8,30.19,SSW,202,2.0,4.0,75,0.00,,,0.00,Wunderground v.1.15,2013-07-29 03:48:00,
2013-07-28 23:49:00,70.2,61.9,30.19,SSW,202,2.0,4.0,75,0.00,,,0.00,Wunderground v.1.15,2013-07-29 03:49:00,
2013-07-28 23:50:00,70.2,62.6,30.19,SSW,202,2.0,2.0,77,0.00,,,0.00,Wunderground v.1.15,2013-07-29 03:50:00,
2013-07-28 23:51:00,70.3,62.4,30.20,West,279,2.0,2.0,76,0.00,,,0.00,Wunderground v.1.15,2013-07-29 03:51:00,
2013-07-28 23:52:00,70.4,62.8,30.19,WSW,238,2.0,2.0,77,0.00,,,0.00,Wunderground v.1.15,2013-07-29 03:52:00,
2013-07-28 23:53:00,70.5,62.9,30.20,WSW,238,1.0,2.0,77,0.00,,,0.00,Wunderground v.1.15,2013-07-29 03:53:00,
2013-07-28 23:54:00,70.6,63.4,30.19,WSW,238,1.0,2.0,78,0.00,,,0.00,Wunderground v.1.15,2013-07-29 03:54:00,
2013-07-28 23:55:00,70.7,63.9,30.19,WSW,238,1.0,2.0,79,0.00,,,0.00,Wunderground v.1.15,2013-07-29 03:55:00,
2013-07-28 23:56:00,70.7,62.8,30.19,South,188,1.0,2.0,76,0.00,,,0.00,Wunderground v.1.15,2013-07-29 03:56:00,
2013-07-28 23:57:00,70.8,62.9,30.19,South,189,1.0,4.0,76,0.00,,,0.00,Wunderground v.1.15,2013-07-29 03:57:00,
2013-07-28 23:58:00,71.0,62.7,30.19,SSW,204,1.0,4.0,75,0.00,,,0.00,Wunderground v.1.15,2013-07-29 03:58:00,
2013-07-28 23:59:00,71.1,62.4,30.19,WSW,247,1.0,4.0,74,0.00,,,0.00,Wunderground v.1.15,2013-07-29 03:59:00,